Wetterdaten: Donnerstag, 17.05.2012
Datum Zeit Temp. Innen Temp. Aussen UV X Diff Temp. Feuchte Inne Feuchte Auss Sonnenschein Luftdruck Regen ab 0,1 Wind Sonnenschein T Regendauer Windben
17.05.2012 00:00 16,6 C 5,2 C 0,0 UV-I 0,0 C 43 % 77 % 0 % 1024,9 hPa 0,0 l/m 0,0 km/h (0 Bft) 0 min 0 min 0,0 km/h (0 Bft)
17.05.2012 00:02 16,6 C 5,3 C 0,0 UV-I 0,0 C 43 % 77 % 0 % 1024,9 hPa 0,0 l/m 0,0 km/h (0 Bft) 0 min 0 min 0,0 km/h (0 Bft)
17.05.2012 00:04 16,6 C 5,3 C 0,0 UV-I 0,0 C 43 % 77 % 0 % 1024,9 hPa 0,0 l/m 0,0 km/h (0 Bft) 0 min 0 min 0,0 km/h (0 Bft)
17.05.2012 00:06 16,6 C 5,1 C 0,0 UV-I 0,0 C 43 % 78 % 0 % 1024,9 hPa 0,0 l/m 0,0 km/h (0 Bft) 0 min 0 min 0,0 km/h (0 Bft)
17.05.2012 00:08 16,6 C 5,1 C 0,0 UV-I 0,0 C 43 % 78 % 0 % 1024,9 hPa 0,0 l/m 0,0 km/h (0 Bft) 0 min 0 min 0,0 km/h (0 Bft)
17.05.2012 00:10 16,6 C 5,0 C 0,0 UV-I 0,0 C 43 % 78 % 0 % 1024,9 hPa 0,0 l/m 0,0 km/h (0 Bft) 0 min 0 min 0,0 km/h (0 Bft)
17.05.2012 00:12 16,5 C 5,1 C 0,0 UV-I 0,0 C 43 % 78 % 0 % 1024,9 hPa 0,0 l/m 0,0 km/h (0 Bft) 0 min 0 min 0,0 km/h (0 Bft)
17.05.2012 00:14 16,5 C 4,9 C 0,0 UV-I 0,0 C 43 % 78 % 0 % 1024,9 hPa 0,0 l/m 0,0 km/h (0 Bft) 0 min 0 min 0,0 km/h (0 Bft)
17.05.2012 00:16 16,5 C 4,9 C 0,0 UV-I 0,0 C 43 % 78 % 0 % 1024,9 hPa 0,0 l/m 0,0 km/h (0 Bft) 0 min 0 min 0,0 km/h (0 Bft)
17.05.2012 00:18 16,5 C 4,8 C 0,0 UV-I 0,0 C 43 % 79 % 0 % 1025,1 hPa 0,0 l/m 0,0 km/h (0 Bft) 0 min 0 min 0,0 km/h (0 Bft)
17.05.2012 00:20 16,5 C 4,9 C 0,0 UV-I 0,0 C 43 % 79 % 0 % 1025,1 hPa 0,0 l/m 0,0 km/h (0 Bft) 0 min 0 min 0,0 km/h (0 Bft)
17.05.2012 00:22 16,5 C 4,8 C 0,0 UV-I 0,0 C 43 % 79 % 0 % 1025,1 hPa 0,0 l/m 0,0 km/h (0 Bft) 0 min 0 min 0,0 km/h (0 Bft)
17.05.2012 00:24 16,4 C 4,7 C 0,0 UV-I 0,0 C 43 % 79 % 0 % 1025,1 hPa 0,0 l/m 0,0 km/h (0 Bft) 0 min 0 min 0,0 km/h (0 Bft)
17.05.2012 00:26 16,4 C 4,7 C 0,0 UV-I 0,0 C 44 % 79 % 0 % 1025,1 hPa 0,0 l/m 0,0 km/h (0 Bft) 0 min 0 min 0,0 km/h (0 Bft)
17.05.2012 00:28 16,4 C 4,7 C 0,0 UV-I 0,0 C 43 % 79 % 0 % 1025,1 hPa 0,0 l/m 0,0 km/h (0 Bft) 0 min 0 min 0,0 km/h (0 Bft)
17.05.2012 00:30 16,4 C 4,7 C 0,0 UV-I 0,0 C 44 % 80 % 0 % 1025,1 hPa 0,0 l/m 0,0 km/h (0 Bft) 0 min 0 min 0,0 km/h (0 Bft)
17.05.2012 00:32 16,4 C 4,7 C 0,0 UV-I 0,0 C 44 % 80 % 0 % 1025,1 hPa 0,0 l/m 0,0 km/h (0 Bft) 0 min 0 min 0,0 km/h (0 Bft)
17.05.2012 00:34 16,4 C 4,7 C 0,0 UV-I 0,0 C 43 % 80 % 0 % 1025,1 hPa 0,0 l/m 0,0 km/h (0 Bft) 0 min 0 min 0,0 km/h (0 Bft)
17.05.2012 00:36 16,4 C 4,7 C 0,0 UV-I 0,0 C 44 % 81 % 0 % 1025,1 hPa 0,0 l/m 0,0 km/h (0 Bft) 0 min 0 min 0,0 km/h (0 Bft)
17.05.2012 00:38 16,4 C 4,6 C 0,0 UV-I 0,0 C 44 % 81 % 0 % 1025,0 hPa 0,0 l/m 0,0 km/h (0 Bft) 0 min 0 min 0,0 km/h (0 Bft)
17.05.2012 00:40 16,4 C 4,5 C 0,0 UV-I 0,0 C 44 % 81 % 0 % 1025,0 hPa 0,0 l/m 0,0 km/h (0 Bft) 0 min 0 min 0,0 km/h (0 Bft)
17.05.2012 00:42 16,4 C 4,5 C 0,0 UV-I 0,0 C 44 % 81 % 0 % 1025,0 hPa 0,0 l/m 0,0 km/h (0 Bft) 0 min 0 min 0,0 km/h (0 Bft)
17.05.2012 00:44 16,4 C 4,4 C 0,0 UV-I 0,0 C 44 % 81 % 0 % 1025,0 hPa 0,0 l/m 0,0 km/h (0 Bft) 0 min 0 min 0,0 km/h (0 Bft)
17.05.2012 00:46 16,4 C 4,4 C 0,0 UV-I 0,0 C 44 % 81 % 0 % 1025,0 hPa 0,0 l/m 0,0 km/h (0 Bft) 0 min 0 min 0,0 km/h (0 Bft)
17.05.2012 00:48 16,4 C 4,5 C 0,0 UV-I 0,0 C 44 % 81 % 0 % 1025,0 hPa 0,0 l/m 0,0 km/h (0 Bft) 0 min 0 min 0,0 km/h (0 Bft)
17.05.2012 00:50 16,2 C 4,4 C 0,0 UV-I 0,0 C 44 % 81 % 0 % 1025,0 hPa 0,0 l/m 0,0 km/h (0 Bft) 0 min 0 min 0,0 km/h (0 Bft)
17.05.2012 00:52 16,3 C 4,3 C 0,0 UV-I 0,0 C 44 % 81 % 0 % 1025,0 hPa 0,0 l/m 0,0 km/h (0 Bft) 0 min 0 min 0,0 km/h (0 Bft)
17.05.2012 00:54 16,3 C 4,3 C 0,0 UV-I 0,0 C 44 % 81 % 0 % 1025,0 hPa 0,0 l/m 0,0 km/h (0 Bft) 0 min 0 min 0,0 km/h (0 Bft)
17.05.2012 00:56 16,3 C 4,3 C 0,0 UV-I 0,0 C 44 % 82 % 0 % 1025,0 hPa 0,0 l/m 0,0 km/h (0 Bft) 0 min 0 min 0,0 km/h (0 Bft)
17.05.2012 00:58 16,3 C 4,3 C 0,0 UV-I 0,0 C 44 % 82 % 0 % 1024,8 hPa 0,0 l/m 0,0 km/h (0 Bft) 0 min 0 min 0,0 km/h (0 Bft)
17.05.2012 01:00 16,3 C 4,2 C 0,0 UV-I 0,0 C 44 % 82 % 0 % 1024,8 hPa 0,0 l/m 0,0 km/h (0 Bft) 0 min 0 min 0,0 km/h (0 Bft)
17.05.2012 01:02 16,2 C 4,1 C 0,0 UV-I 0,0 C 44 % 82 % 0 % 1024,8 hPa 0,0 l/m 0,0 km/h (0 Bft) 0 min 0 min 0,0 km/h (0 Bft)
17.05.2012 01:04 16,2 C 4,1 C 0,0 UV-I 0,0 C 44 % 82 % 0 % 1024,8 hPa 0,0 l/m 0,0 km/h (0 Bft) 0 min 0 min 0,0 km/h (0 Bft)
17.05.2012 01:06 16,2 C 4,1 C 0,0 UV-I 0,0 C 44 % 82 % 0 % 1024,8 hPa 0,0 l/m 0,0 km/h (0 Bft) 0 min 0 min 0,0 km/h (0 Bft)
17.05.2012 01:08 16,2 C 4,0 C 0,0 UV-I 0,0 C 44 % 83 % 0 % 1024,8 hPa 0,0 l/m 0,0 km/h (0 Bft) 0 min 0 min 0,0 km/h (0 Bft)
17.05.2012 01:10 16,2 C 4,0 C 0,0 UV-I 0,0 C 44 % 83 % 0 % 1024,8 hPa 0,0 l/m 0,0 km/h (0 Bft) 0 min 0 min 0,0 km/h (0 Bft)
17.05.2012 01:12 16,2 C 4,0 C 0,0 UV-I 0,0 C 44 % 83 % 0 % 1024,8 hPa 0,0 l/m 0,0 km/h (0 Bft) 0 min 0 min 0,0 km/h (0 Bft)
17.05.2012 01:14 16,2 C 4,1 C 0,0 UV-I 0,0 C 44 % 83 % 0 % 1024,8 hPa 0,0 l/m 0,0 km/h (0 Bft) 0 min 0 min 0,0 km/h (0 Bft)
17.05.2012 01:16 16,2 C 4,1 C 0,0 UV-I 0,0 C 44 % 83 % 0 % 1024,8 hPa 0,0 l/m 0,0 km/h (0 Bft) 0 min 0 min 0,0 km/h (0 Bft)
17.05.2012 01:18 16,1 C 4,0 C 0,0 UV-I 0,0 C 44 % 84 % 0 % 1024,9 hPa 0,0 l/m 0,0 km/h (0 Bft) 0 min 0 min 0,0 km/h (0 Bft)
17.05.2012 01:20 16,1 C 4,0 C 0,0 UV-I 0,0 C 44 % 84 % 0 % 1024,9 hPa 0,0 l/m 0,0 km/h (0 Bft) 0 min 0 min 0,0 km/h (0 Bft)
17.05.2012 01:22 16,1 C 3,9 C 0,0 UV-I 0,0 C 44 % 84 % 0 % 1024,9 hPa 0,0 l/m 0,0 km/h (0 Bft) 0 min 0 min 0,0 km/h (0 Bft)
17.05.2012 01:24 16,1 C 3,9 C 0,0 UV-I 0,0 C 44 % 84 % 0 % 1024,9 hPa 0,0 l/m 0,0 km/h (0 Bft) 0 min 0 min 0,0 km/h (0 Bft)
17.05.2012 01:26 16,1 C 3,8 C 0,0 UV-I 0,0 C 44 % 83 % 0 % 1024,9 hPa 0,0 l/m 0,0 km/h (0 Bft) 0 min 0 min 0,0 km/h (0 Bft)
17.05.2012 01:28 16,1 C 3,9 C 0,0 UV-I 0,0 C 44 % 84 % 0 % 1024,9 hPa 0,0 l/m 0,0 km/h (0 Bft) 0 min 0 min 0,0 km/h (0 Bft)
17.05.2012 01:30 16,1 C 3,9 C 0,0 UV-I 0,0 C 45 % 84 % 0 % 1024,9 hPa 0,0 l/m 0,0 km/h (0 Bft) 0 min 0 min 0,0 km/h (0 Bft)
17.05.2012 01:32 16,1 C 3,8 C 0,0 UV-I 0,0 C 45 % 84 % 0 % 1024,9 hPa 0,0 l/m 0,0 km/h (0 Bft) 0 min 0 min 0,0 km/h (0 Bft)
17.05.2012 01:34 15,9 C 3,9 C 0,0 UV-I 0,0 C 45 % 84 % 0 % 1024,9 hPa 0,0 l/m 0,0 km/h (0 Bft) 0 min 0 min 0,0 km/h (0 Bft)
17.05.2012 01:36 15,9 C 3,8 C 0,0 UV-I 0,0 C 45 % 84 % 0 % 1024,9 hPa 0,0 l/m 0,0 km/h (0 Bft) 0 min 0 min 0,0 km/h (0 Bft)
17.05.2012 01:38 16,1 C 3,7 C 0,0 UV-I 0,0 C 45 % 84 % 0 % 1024,8 hPa 0,0 l/m 0,0 km/h (0 Bft) 0 min 0 min 0,0 km/h (0 Bft)
17.05.2012 01:40 15,9 C 3,8 C 0,0 UV-I 0,0 C 45 % 85 % 0 % 1024,8 hPa 0,0 l/m 0,0 km/h (0 Bft) 0 min 0 min 0,0 km/h (0 Bft)
17.05.2012 01:42 15,9 C 3,7 C 0,0 UV-I 0,0 C 45 % 85 % 0 % 1024,8 hPa 0,0 l/m 0,0 km/h (0 Bft) 0 min 0 min 0,0 km/h (0 Bft)
17.05.2012 01:44 15,9 C 3,7 C 0,0 UV-I 0,0 C 45 % 85 % 0 % 1024,8 hPa 0,0 l/m 0,0 km/h (0 Bft) 0 min 0 min 0,0 km/h (0 Bft)
17.05.2012 01:46 16,0 C 3,7 C 0,0 UV-I 0,0 C 45 % 85 % 0 % 1024,8 hPa 0,0 l/m 0,0 km/h (0 Bft) 0 min 0 min 0,0 km/h (0 Bft)
17.05.2012 01:48 16,0 C 3,6 C 0,0 UV-I 0,0 C 45 % 85 % 0 % 1024,8 hPa 0,0 l/m 0,0 km/h (0 Bft) 0 min 0 min 0,0 km/h (0 Bft)
17.05.2012 01:50 16,0 C 3,7 C 0,0 UV-I 0,0 C 45 % 85 % 0 % 1024,8 hPa 0,0 l/m 0,0 km/h (0 Bft) 0 min 0 min 0,0 km/h (0 Bft)
17.05.2012 01:52 16,0 C 3,6 C 0,0 UV-I 0,0 C 45 % 85 % 0 % 1024,8 hPa 0,0 l/m 0,0 km/h (0 Bft) 0 min 0 min 0,0 km/h (0 Bft)
17.05.2012 01:54 16,0 C 3,6 C 0,0 UV-I 0,0 C 45 % 85 % 0 % 1024,8 hPa 0,0 l/m 0,0 km/h (0 Bft) 0 min 0 min 0,0 km/h (0 Bft)
17.05.2012 01:56 15,8 C 3,6 C 0,0 UV-I 0,0 C 45 % 85 % 0 % 1024,8 hPa 0,0 l/m 0,0 km/h (0 Bft) 0 min 0 min 0,0 km/h (0 Bft)
17.05.2012 01:58 15,8 C 3,6 C 0,0 UV-I 0,0 C 45 % 85 % 0 % 1024,8 hPa 0,0 l/m 0,0 km/h (0 Bft) 0 min 0 min 0,0 km/h (0 Bft)
17.05.2012 02:00 15,8 C 3,7 C 0,0 UV-I 0,0 C 45 % 86 % 0 % 1024,8 hPa 0,0 l/m 0,0 km/h (0 Bft) 0 min 0 min 0,0 km/h (0 Bft)
17.05.2012 02:02 15,8 C 3,7 C 0,0 UV-I 0,0 C 45 % 86 % 0 % 1024,8 hPa 0,0 l/m 0,0 km/h (0 Bft) 0 min 0 min 0,0 km/h (0 Bft)
17.05.2012 02:04 15,8 C 3,6 C 0,0 UV-I 0,0 C 45 % 86 % 0 % 1024,8 hPa 0,0 l/m 0,0 km/h (0 Bft) 0 min 0 min 0,0 km/h (0 Bft)
17.05.2012 02:06 15,9 C 3,6 C 0,0 UV-I 0,0 C 45 % 86 % 0 % 1024,8 hPa 0,0 l/m 0,0 km/h (0 Bft) 0 min 0 min 0,0 km/h (0 Bft)
17.05.2012 02:08 15,9 C 3,6 C 0,0 UV-I 0,0 C 45 % 86 % 0 % 1024,8 hPa 0,0 l/m 0,0 km/h (0 Bft) 0 min 0 min 0,0 km/h (0 Bft)
17.05.2012 02:10 15,9 C 3,5 C 0,0 UV-I 0,0 C 45 % 86 % 0 % 1024,8 hPa 0,0 l/m 0,0 km/h (0 Bft) 0 min 0 min 0,0 km/h (0 Bft)
17.05.2012 02:12 15,9 C 3,5 C 0,0 UV-I 0,0 C 45 % 86 % 0 % 1024,8 hPa 0,0 l/m 0,0 km/h (0 Bft) 0 min 0 min 0,0 km/h (0 Bft)
17.05.2012 02:14 15,9 C 3,5 C 0,0 UV-I 0,0 C 45 % 86 % 0 % 1024,8 hPa 0,0 l/m 0,0 km/h (0 Bft) 0 min 0 min 0,0 km/h (0 Bft)
17.05.2012 02:16 15,9 C 3,5 C 0,0 UV-I 0,0 C 45 % 86 % 0 % 1024,8 hPa 0,0 l/m 0,0 km/h (0 Bft) 0 min 0 min 0,0 km/h (0 Bft)
17.05.2012 02:18 15,8 C 3,4 C 0,0 UV-I 0,0 C 45 % 86 % 0 % 1024,9 hPa 0,0 l/m 0,0 km/h (0 Bft) 0 min 0 min 0,0 km/h (0 Bft)
17.05.2012 02:20 15,8 C 3,5 C 0,0 UV-I 0,0 C 45 % 86 % 0 % 1024,9 hPa 0,0 l/m 0,0 km/h (0 Bft) 0 min 0 min 0,0 km/h (0 Bft)
17.05.2012 02:22 15,8 C 3,5 C 0,0 UV-I 0,0 C 45 % 86 % 0 % 1024,9 hPa 0,0 l/m 0,0 km/h (0 Bft) 0 min 0 min 0,0 km/h (0 Bft)
17.05.2012 02:24 15,8 C 3,4 C 0,0 UV-I 0,0 C 45 % 86 % 0 % 1024,9 hPa 0,0 l/m 0,0 km/h (0 Bft) 0 min 0 min 0,0 km/h (0 Bft)
17.05.2012 02:26 15,8 C 3,5 C 0,0 UV-I 0,0 C 45 % 86 % 0 % 1024,9 hPa 0,0 l/m 0,0 km/h (0 Bft) 0 min 0 min 0,0 km/h (0 Bft)
17.05.2012 02:28 15,8 C 3,5 C 0,0 UV-I 0,0 C 45 % 86 % 0 % 1024,9 hPa 0,0 l/m 0,0 km/h (0 Bft) 0 min 0 min 0,0 km/h (0 Bft)
17.05.2012 02:30 15,8 C 3,5 C 0,0 UV-I 0,0 C 45 % 86 % 0 % 1024,9 hPa 0,0 l/m 0,0 km/h (0 Bft) 0 min 0 min 0,0 km/h (0 Bft)
17.05.2012 02:32 15,8 C 3,5 C 0,0 UV-I 0,0 C 45 % 86 % 0 % 1024,9 hPa 0,0 l/m 0,0 km/h (0 Bft) 0 min 0 min 0,0 km/h (0 Bft)
17.05.2012 02:34 15,8 C 3,5 C 0,0 UV-I 0,0 C 45 % 86 % 0 % 1024,9 hPa 0,0 l/m 0,0 km/h (0 Bft) 0 min 0 min 0,0 km/h (0 Bft)
17.05.2012 02:36 15,8 C 3,3 C 0,0 UV-I 0,0 C 45 % 87 % 0 % 1024,9 hPa 0,0 l/m 0,0 km/h (0 Bft) 0 min 0 min 0,0 km/h (0 Bft)
17.05.2012 02:38 15,8 C 3,3 C 0,0 UV-I 0,0 C 45 % 86 % 0 % 1024,8 hPa 0,0 l/m 0,0 km/h (0 Bft) 0 min 0 min 0,0 km/h (0 Bft)
17.05.2012 02:40 15,8 C 3,3 C 0,0 UV-I 0,0 C 45 % 87 % 0 % 1024,8 hPa 0,0 l/m 0,0 km/h (0 Bft) 0 min 0 min 0,0 km/h (0 Bft)
17.05.2012 02:42 15,8 C 3,3 C 0,0 UV-I 0,0 C 45 % 87 % 0 % 1024,8 hPa 0,0 l/m 0,0 km/h (0 Bft) 0 min 0 min 0,0 km/h (0 Bft)
17.05.2012 02:44 15,8 C 3,2 C 0,0 UV-I 0,0 C 45 % 87 % 0 % 1024,8 hPa 0,0 l/m 0,0 km/h (0 Bft) 0 min 0 min 0,0 km/h (0 Bft)
17.05.2012 02:46 15,8 C 3,2 C 0,0 UV-I 0,0 C 45 % 87 % 0 % 1024,8 hPa 0,0 l/m 0,0 km/h (0 Bft) 0 min 0 min 0,0 km/h (0 Bft)
17.05.2012 02:48 15,8 C 3,2 C 0,0 UV-I 0,0 C 45 % 87 % 0 % 1024,8 hPa 0,0 l/m 0,0 km/h (0 Bft) 0 min 0 min 0,0 km/h (0 Bft)
17.05.2012 02:50 15,6 C 3,2 C 0,0 UV-I 0,0 C 45 % 87 % 0 % 1024,8 hPa 0,0 l/m 0,0 km/h (0 Bft) 0 min 0 min 0,0 km/h (0 Bft)
17.05.2012 02:52 15,6 C 3,2 C 0,0 UV-I 0,0 C 45 % 87 % 0 % 1024,8 hPa 0,0 l/m 0,0 km/h (0 Bft) 0 min 0 min 0,0 km/h (0 Bft)
17.05.2012 02:54 15,6 C 3,1 C 0,0 UV-I 0,0 C 45 % 87 % 0 % 1024,8 hPa 0,0 l/m 0,0 km/h (0 Bft) 0 min 0 min 0,0 km/h (0 Bft)
17.05.2012 02:56 15,6 C 3,1 C 0,0 UV-I 0,0 C 45 % 87 % 0 % 1024,8 hPa 0,0 l/m 0,0 km/h (0 Bft) 0 min 0 min 0,0 km/h (0 Bft)
17.05.2012 02:58 15,6 C 3,1 C 0,0 UV-I 0,0 C 45 % 87 % 0 % 1024,3 hPa 0,0 l/m 0,0 km/h (0 Bft) 0 min 0 min 0,0 km/h (0 Bft)
17.05.2012 03:00 15,6 C 3,1 C 0,0 UV-I 0,0 C 45 % 87 % 0 % 1024,3 hPa 0,0 l/m 0,0 km/h (0 Bft) 0 min 0 min 0,0 km/h (0 Bft)
17.05.2012 03:02 15,7 C 3,1 C 0,0 UV-I 0,0 C 45 % 87 % 0 % 1024,3 hPa 0,0 l/m 0,0 km/h (0 Bft) 0 min 0 min 0,0 km/h (0 Bft)
17.05.2012 03:04 15,7 C 3,1 C 0,0 UV-I 0,0 C 45 % 87 % 0 % 1024,3 hPa 0,0 l/m 0,0 km/h (0 Bft) 0 min 0 min 0,0 km/h (0 Bft)
17.05.2012 03:06 15,7 C 3,1 C 0,0 UV-I 0,0 C 45 % 87 % 0 % 1024,3 hPa 0,0 l/m 0,0 km/h (0 Bft) 0 min 0 min 0,0 km/h (0 Bft)
17.05.2012 03:08 15,6 C 3,1 C 0,0 UV-I 0,0 C 45 % 87 % 0 % 1024,3 hPa 0,0 l/m 0,0 km/h (0 Bft) 0 min 0 min 0,0 km/h (0 Bft)
17.05.2012 03:10 15,7 C 3,0 C 0,0 UV-I 0,0 C 45 % 87 % 0 % 1024,3 hPa 0,0 l/m 0,0 km/h (0 Bft) 0 min 0 min 0,0 km/h (0 Bft)
17.05.2012 03:12 15,6 C 3,1 C 0,0 UV-I 0,0 C 45 % 88 % 0 % 1024,3 hPa 0,0 l/m 0,0 km/h (0 Bft) 0 min 0 min 0,0 km/h (0 Bft)
17.05.2012 03:14 15,6 C 3,1 C 0,0 UV-I 0,0 C 45 % 88 % 0 % 1024,3 hPa 0,0 l/m 0,0 km/h (0 Bft) 0 min 0 min 0,0 km/h (0 Bft)
17.05.2012 03:16 15,6 C 3,1 C 0,0 UV-I 0,0 C 45 % 88 % 0 % 1024,3 hPa 0,0 l/m 0,0 km/h (0 Bft) 0 min 0 min 0,0 km/h (0 Bft)
17.05.2012 03:18 15,6 C 3,1 C 0,0 UV-I 0,0 C 45 % 88 % 0 % 1024,5 hPa 0,0 l/m 0,0 km/h (0 Bft) 0 min 0 min 0,0 km/h (0 Bft)
17.05.2012 03:20 15,6 C 2,9 C 0,0 UV-I 0,0 C 45 % 88 % 0 % 1024,5 hPa 0,0 l/m 0,0 km/h (0 Bft) 0 min 0 min 0,0 km/h (0 Bft)
17.05.2012 03:22 15,6 C 2,9 C 0,0 UV-I 0,0 C 45 % 88 % 0 % 1024,5 hPa 0,0 l/m 0,0 km/h (0 Bft) 0 min 0 min 0,0 km/h (0 Bft)
17.05.2012 03:24 15,6 C 2,9 C 0,0 UV-I 0,0 C 45 % 88 % 0 % 1024,5 hPa 0,0 l/m 0,0 km/h (0 Bft) 0 min 0 min 0,0 km/h (0 Bft)
17.05.2012 03:26 15,6 C 2,9 C 0,0 UV-I 0,0 C 45 % 88 % 0 % 1024,5 hPa 0,0 l/m 0,0 km/h (0 Bft) 0 min 0 min 0,0 km/h (0 Bft)
17.05.2012 03:28 15,6 C 2,8 C 0,0 UV-I 0,0 C 45 % 88 % 0 % 1024,5 hPa 0,0 l/m 0,0 km/h (0 Bft) 0 min 0 min 0,0 km/h (0 Bft)
17.05.2012 03:30 15,6 C 2,8 C 0,0 UV-I 0,0 C 45 % 88 % 0 % 1024,5 hPa 0,0 l/m 0,0 km/h (0 Bft) 0 min 0 min 0,0 km/h (0 Bft)
17.05.2012 03:32 15,6 C 2,8 C 0,0 UV-I 0,0 C 45 % 88 % 0 % 1024,5 hPa 0,0 l/m 0,0 km/h (0 Bft) 0 min 0 min 0,0 km/h (0 Bft)
17.05.2012 03:34 15,6 C 2,8 C 0,0 UV-I 0,0 C 45 % 88 % 0 % 1024,5 hPa 0,0 l/m 0,0 km/h (0 Bft) 0 min 0 min 0,0 km/h (0 Bft)
17.05.2012 03:36 15,6 C 2,9 C 0,0 UV-I 0,0 C 45 % 88 % 0 % 1024,5 hPa 0,0 l/m 0,0 km/h (0 Bft) 0 min 0 min 0,0 km/h (0 Bft)
17.05.2012 03:38 15,6 C 2,9 C 0,0 UV-I 0,0 C 45 % 88 % 0 % 1024,5 hPa 0,0 l/m 0,0 km/h (0 Bft) 0 min 0 min 0,0 km/h (0 Bft)
17.05.2012 03:40 15,6 C 2,8 C 0,0 UV-I 0,0 C 45 % 88 % 0 % 1024,5 hPa 0,0 l/m 0,0 km/h (0 Bft) 0 min 0 min 0,0 km/h (0 Bft)
17.05.2012 03:42 15,6 C 2,8 C 0,0 UV-I 0,0 C 45 % 88 % 0 % 1024,5 hPa 0,0 l/m 0,0 km/h (0 Bft) 0 min 0 min 0,0 km/h (0 Bft)
17.05.2012 03:44 15,4 C 2,8 C 0,0 UV-I 0,0 C 45 % 88 % 0 % 1024,5 hPa 0,0 l/m 0,0 km/h (0 Bft) 0 min 0 min 0,0 km/h (0 Bft)
17.05.2012 03:46 15,4 C 2,8 C 0,0 UV-I 0,0 C 45 % 88 % 0 % 1024,5 hPa 0,0 l/m 0,0 km/h (0 Bft) 0 min 0 min 0,0 km/h (0 Bft)
17.05.2012 03:48 15,4 C 2,8 C 0,0 UV-I 0,0 C 45 % 88 % 0 % 1024,5 hPa 0,0 l/m 0,0 km/h (0 Bft) 0 min 0 min 0,0 km/h (0 Bft)
17.05.2012 03:50 15,5 C 2,8 C 0,0 UV-I 0,0 C 45 % 88 % 0 % 1024,5 hPa 0,0 l/m 0,0 km/h (0 Bft) 0 min 0 min 0,0 km/h (0 Bft)
17.05.2012 03:52 15,5 C 2,8 C 0,0 UV-I 0,0 C 45 % 88 % 0 % 1024,5 hPa 0,0 l/m 0,0 km/h (0 Bft) 0 min 0 min 0,0 km/h (0 Bft)
17.05.2012 03:54 15,5 C 2,7 C 0,0 UV-I 0,0 C 45 % 88 % 0 % 1024,5 hPa 0,0 l/m 0,0 km/h (0 Bft) 0 min 0 min 0,0 km/h (0 Bft)
17.05.2012 03:56 15,5 C 2,7 C 0,0 UV-I 0,0 C 45 % 88 % 0 % 1024,5 hPa 0,0 l/m 0,0 km/h (0 Bft) 0 min 0 min 0,0 km/h (0 Bft)
17.05.2012 03:58 15,5 C 2,7 C 0,0 UV-I 0,0 C 45 % 88 % 0 % 1024,1 hPa 0,0 l/m 0,0 km/h (0 Bft) 0 min 0 min 0,0 km/h (0 Bft)
17.05.2012 04:00 15,5 C 2,6 C 0,0 UV-I 0,0 C 45 % 89 % 0 % 1024,1 hPa 0,0 l/m 0,0 km/h (0 Bft) 0 min 0 min 0,0 km/h (0 Bft)
17.05.2012 04:02 15,3 C 2,7 C 0,0 UV-I 0,0 C 45 % 89 % 0 % 1024,1 hPa 0,0 l/m 0,0 km/h (0 Bft) 0 min 0 min 0,0 km/h (0 Bft)
17.05.2012 04:04 15,5 C 2,7 C 0,0 UV-I 0,0 C 45 % 89 % 0 % 1024,1 hPa 0,0 l/m 0,0 km/h (0 Bft) 0 min 0 min 0,0 km/h (0 Bft)
17.05.2012 04:06 15,5 C 2,7 C 0,0 UV-I 0,0 C 45 % 89 % 0 % 1024,1 hPa 0,0 l/m 0,0 km/h (0 Bft) 0 min 0 min 0,0 km/h (0 Bft)
17.05.2012 04:08 15,3 C 2,7 C 0,0 UV-I 0,0 C 45 % 89 % 0 % 1024,1 hPa 0,0 l/m 0,0 km/h (0 Bft) 0 min 0 min 0,0 km/h (0 Bft)
17.05.2012 04:10 15,4 C 2,6 C 0,0 UV-I 0,0 C 45 % 89 % 0 % 1024,1 hPa 0,0 l/m 0,0 km/h (0 Bft) 0 min 0 min 0,0 km/h (0 Bft)
17.05.2012 04:12 15,3 C 2,6 C 0,0 UV-I 0,0 C 45 % 89 % 0 % 1024,1 hPa 0,0 l/m 0,0 km/h (0 Bft) 0 min 0 min 0,0 km/h (0 Bft)
17.05.2012 04:14 15,4 C 2,5 C 0,0 UV-I 0,0 C 45 % 89 % 0 % 1024,1 hPa 0,0 l/m 0,0 km/h (0 Bft) 0 min 0 min 0,0 km/h (0 Bft)
17.05.2012 04:16 15,4 C 2,6 C 0,0 UV-I 0,0 C 45 % 89 % 0 % 1024,1 hPa 0,0 l/m 0,0 km/h (0 Bft) 0 min 0 min 0,0 km/h (0 Bft)
17.05.2012 04:18 15,4 C 2,5 C 0,0 UV-I 0,0 C 45 % 89 % 0 % 1024,3 hPa 0,0 l/m 0,0 km/h (0 Bft) 0 min 0 min 0,0 km/h (0 Bft)
17.05.2012 04:20 15,4 C 2,5 C 0,0 UV-I 0,0 C 45 % 89 % 0 % 1024,3 hPa 0,0 l/m 0,0 km/h (0 Bft) 0 min 0 min 0,0 km/h (0 Bft)
17.05.2012 04:22 15,4 C 2,5 C 0,0 UV-I 0,0 C 45 % 89 % 0 % 1024,3 hPa 0,0 l/m 0,0 km/h (0 Bft) 0 min 0 min 0,0 km/h (0 Bft)
17.05.2012 04:24 15,4 C 2,5 C 0,0 UV-I 0,0 C 45 % 89 % 0 % 1024,3 hPa 0,0 l/m 0,0 km/h (0 Bft) 0 min 0 min 0,0 km/h (0 Bft)
17.05.2012 04:26 15,4 C 2,5 C 0,0 UV-I 0,0 C 45 % 89 % 0 % 1024,3 hPa 0,0 l/m 0,0 km/h (0 Bft) 0 min 0 min 0,0 km/h (0 Bft)
17.05.2012 04:28 15,4 C 2,5 C 0,0 UV-I 0,0 C 46 % 89 % 0 % 1024,3 hPa 0,0 l/m 0,0 km/h (0 Bft) 0 min 0 min 0,0 km/h (0 Bft)
17.05.2012 04:30 15,4 C 2,4 C 0,0 UV-I 0,0 C 45 % 89 % 0 % 1024,3 hPa 0,0 l/m 0,0 km/h (0 Bft) 0 min 0 min 0,0 km/h (0 Bft)
17.05.2012 04:32 15,2 C 2,5 C 0,0 UV-I 0,0 C 46 % 89 % 0 % 1024,3 hPa 0,0 l/m 0,0 km/h (0 Bft) 0 min 0 min 0,0 km/h (0 Bft)
17.05.2012 04:34 15,2 C 2,4 C 0,0 UV-I 0,0 C 45 % 89 % 0 % 1024,3 hPa 0,0 l/m 0,0 km/h (0 Bft) 0 min 0 min 0,0 km/h (0 Bft)
17.05.2012 04:36 15,2 C 2,5 C 0,0 UV-I 0,0 C 45 % 89 % 0 % 1024,3 hPa 0,0 l/m 0,0 km/h (0 Bft) 0 min 0 min 0,0 km/h (0 Bft)
17.05.2012 04:38 15,2 C 2,5 C 0,0 UV-I 0,0 C 45 % 90 % 0 % 1024,2 hPa 0,0 l/m 0,0 km/h (0 Bft) 0 min 0 min 0,0 km/h (0 Bft)
17.05.2012 04:40 15,2 C 2,5 C 0,0 UV-I 0,0 C 45 % 90 % 0 % 1024,2 hPa 0,0 l/m 0,0 km/h (0 Bft) 0 min 0 min 0,0 km/h (0 Bft)
17.05.2012 04:42 15,2 C 2,6 C 0,0 UV-I 0,0 C 45 % 90 % 0 % 1024,2 hPa 0,0 l/m 0,0 km/h (0 Bft) 0 min 0 min 0,0 km/h (0 Bft)
17.05.2012 04:44 15,2 C 2,6 C 0,0 UV-I 0,0 C 46 % 90 % 0 % 1024,2 hPa 0,0 l/m 0,0 km/h (0 Bft) 0 min 0 min 0,0 km/h (0 Bft)
17.05.2012 04:46 15,2 C 2,5 C 0,0 UV-I 0,0 C 45 % 90 % 0 % 1024,2 hPa 0,0 l/m 0,0 km/h (0 Bft) 0 min 0 min 0,0 km/h (0 Bft)
17.05.2012 04:48 15,3 C 2,5 C 0,0 UV-I 0,0 C 46 % 90 % 0 % 1024,2 hPa 0,0 l/m 0,0 km/h (0 Bft) 0 min 0 min 0,0 km/h (0 Bft)
17.05.2012 04:50 15,3 C 2,5 C 0,0 UV-I 0,0 C 46 % 90 % 0 % 1024,2 hPa 0,0 l/m 0,0 km/h (0 Bft) 0 min 0 min 0,0 km/h (0 Bft)
17.05.2012 04:52 15,2 C 2,5 C 0,0 UV-I 0,0 C 46 % 90 % 0 % 1024,2 hPa 0,0 l/m 0,0 km/h (0 Bft) 0 min 0 min 0,0 km/h (0 Bft)
17.05.2012 04:54 15,3 C 2,5 C 0,0 UV-I 0,0 C 46 % 90 % 0 % 1024,2 hPa 0,0 l/m 0,0 km/h (0 Bft) 0 min 0 min 0,0 km/h (0 Bft)
17.05.2012 04:56 15,3 C 2,5 C 0,0 UV-I 0,0 C 46 % 90 % 0 % 1024,2 hPa 0,0 l/m 0,0 km/h (0 Bft) 0 min 0 min 0,0 km/h (0 Bft)
17.05.2012 04:58 15,1 C 2,5 C 0,0 UV-I 0,0 C 46 % 90 % 0 % 1024,3 hPa 0,0 l/m 0,0 km/h (0 Bft) 0 min 0 min 0,0 km/h (0 Bft)
17.05.2012 05:00 15,1 C 2,5 C 0,0 UV-I 0,0 C 46 % 90 % 0 % 1024,3 hPa 0,0 l/m 0,0 km/h (0 Bft) 0 min 0 min 0,0 km/h (0 Bft)
17.05.2012 05:02 15,1 C 2,5 C 0,0 UV-I 0,0 C 46 % 90 % 0 % 1024,3 hPa 0,0 l/m 0,0 km/h (0 Bft) 0 min 0 min 0,0 km/h (0 Bft)
17.05.2012 05:04 15,1 C 2,5 C 0,0 UV-I 0,0 C 46 % 90 % 0 % 1024,3 hPa 0,0 l/m 0,0 km/h (0 Bft) 0 min 0 min 0,0 km/h (0 Bft)
17.05.2012 05:06 15,1 C 2,5 C 0,0 UV-I 0,0 C 46 % 90 % 0 % 1024,3 hPa 0,0 l/m 0,0 km/h (0 Bft) 0 min 0 min 0,0 km/h (0 Bft)
17.05.2012 05:08 15,1 C 2,4 C 0,0 UV-I 0,0 C 46 % 90 % 0 % 1024,3 hPa 0,0 l/m 0,0 km/h (0 Bft) 0 min 0 min 0,0 km/h (0 Bft)
17.05.2012 05:10 15,1 C 2,5 C 0,0 UV-I 0,0 C 46 % 90 % 0 % 1024,3 hPa 0,0 l/m 0,0 km/h (0 Bft) 0 min 0 min 0,0 km/h (0 Bft)
17.05.2012 05:12 15,1 C 2,4 C 0,0 UV-I 0,0 C 46 % 90 % 0 % 1024,3 hPa 0,0 l/m 0,0 km/h (0 Bft) 0 min 0 min 0,0 km/h (0 Bft)
17.05.2012 05:14 15,1 C 2,4 C 0,0 UV-I 0,0 C 46 % 90 % 0 % 1024,3 hPa 0,0 l/m 0,0 km/h (0 Bft) 0 min 0 min 0,0 km/h (0 Bft)
17.05.2012 05:16 15,1 C 2,4 C 0,0 UV-I 0,0 C 46 % 90 % 0 % 1024,3 hPa 0,0 l/m 0,0 km/h (0 Bft) 0 min 0 min 0,0 km/h (0 Bft)
17.05.2012 05:18 15,1 C 2,4 C 0,0 UV-I 0,0 C 46 % 90 % 0 % 1024,2 hPa 0,0 l/m 0,0 km/h (0 Bft) 0 min 0 min 0,0 km/h (0 Bft)
17.05.2012 05:20 15,1 C 2,4 C 0,0 UV-I 0,0 C 46 % 90 % 0 % 1024,2 hPa 0,0 l/m 0,0 km/h (0 Bft) 0 min 0 min 0,0 km/h (0 Bft)
17.05.2012 05:22 15,1 C 2,3 C 0,0 UV-I 0,0 C 46 % 90 % 0 % 1024,2 hPa 0,0 l/m 0,0 km/h (0 Bft) 0 min 0 min 0,0 km/h (0 Bft)
17.05.2012 05:24 15,2 C 2,3 C 0,0 UV-I 0,0 C 46 % 90 % 0 % 1024,2 hPa 0,0 l/m 0,0 km/h (0 Bft) 0 min 0 min 0,0 km/h (0 Bft)
17.05.2012 05:26 15,2 C 2,3 C 0,0 UV-I 0,0 C 46 % 90 % 0 % 1024,2 hPa 0,0 l/m 0,0 km/h (0 Bft) 0 min 0 min 0,0 km/h (0 Bft)
17.05.2012 05:28 15,2 C 2,3 C 0,0 UV-I 0,0 C 46 % 90 % 0 % 1024,2 hPa 0,0 l/m 0,0 km/h (0 Bft) 0 min 0 min 0,0 km/h (0 Bft)
17.05.2012 05:30 15,2 C 2,3 C 0,0 UV-I 0,0 C 46 % 90 % 0 % 1024,2 hPa 0,0 l/m 0,0 km/h (0 Bft) 0 min 0 min 0,0 km/h (0 Bft)
17.05.2012 05:32 15,2 C 2,3 C 0,0 UV-I 0,0 C 46 % 90 % 0 % 1024,2 hPa 0,0 l/m 0,0 km/h (0 Bft) 0 min 0 min 0,0 km/h (0 Bft)
17.05.2012 05:34 15,2 C 2,2 C 0,0 UV-I 0,0 C 46 % 90 % 0 % 1024,2 hPa 0,0 l/m 0,0 km/h (0 Bft) 0 min 0 min 0,0 km/h (0 Bft)
17.05.2012 05:36 15,2 C 2,3 C 0,0 UV-I 0,0 C 46 % 90 % 0 % 1024,2 hPa 0,0 l/m 0,0 km/h (0 Bft) 0 min 0 min 0,0 km/h (0 Bft)
17.05.2012 05:38 15,2 C 2,3 C 0,0 UV-I 0,0 C 46 % 90 % 0 % 1024,0 hPa 0,0 l/m 0,0 km/h (0 Bft) 0 min 0 min 0,0 km/h (0 Bft)
17.05.2012 05:40 15,2 C 2,3 C 0,0 UV-I 0,0 C 46 % 90 % 0 % 1024,0 hPa 0,0 l/m 0,0 km/h (0 Bft) 0 min 0 min 0,0 km/h (0 Bft)
17.05.2012 05:42 15,2 C 2,2 C 0,0 UV-I 0,0 C 46 % 90 % 0 % 1024,0 hPa 0,0 l/m 0,0 km/h (0 Bft) 0 min 0 min 0,0 km/h (0 Bft)
17.05.2012 05:44 15,2 C 2,1 C 0,0 UV-I 0,0 C 46 % 90 % 0 % 1024,0 hPa 0,0 l/m 0,0 km/h (0 Bft) 0 min 0 min 0,0 km/h (0 Bft)
17.05.2012 05:46 15,2 C 2,1 C 0,0 UV-I 0,0 C 46 % 90 % 0 % 1024,0 hPa 0,0 l/m 0,0 km/h (0 Bft) 0 min 0 min 0,0 km/h (0 Bft)
17.05.2012 05:48 15,2 C 2,1 C 0,0 UV-I 0,0 C 46 % 90 % 0 % 1024,0 hPa 0,0 l/m 0,0 km/h (0 Bft) 0 min 0 min 0,0 km/h (0 Bft)
17.05.2012 05:50 15,2 C 2,0 C 0,0 UV-I 0,0 C 46 % 90 % 0 % 1024,0 hPa 0,0 l/m 0,0 km/h (0 Bft) 0 min 0 min 0,0 km/h (0 Bft)
17.05.2012 05:52 15,2 C 2,0 C 0,0 UV-I 0,0 C 46 % 90 % 0 % 1024,0 hPa 0,0 l/m 0,0 km/h (0 Bft) 0 min 0 min 0,0 km/h (0 Bft)
17.05.2012 05:54 15,2 C 2,0 C 0,0 UV-I 0,0 C 46 % 90 % 0 % 1024,0 hPa 0,0 l/m 0,0 km/h (0 Bft) 0 min 0 min 0,0 km/h (0 Bft)
17.05.2012 05:56 15,2 C 2,0 C 0,0 UV-I 0,0 C 46 % 91 % 0 % 1024,0 hPa 0,0 l/m 0,0 km/h (0 Bft) 0 min 0 min 0,0 km/h (0 Bft)
17.05.2012 05:58 15,1 C 2,0 C 0,0 UV-I 0,0 C 46 % 91 % 0 % 1023,9 hPa 0,0 l/m 0,0 km/h (0 Bft) 0 min 0 min 0,0 km/h (0 Bft)
17.05.2012 06:00 15,2 C 2,0 C 0,0 UV-I 0,0 C 46 % 91 % 0 % 1023,9 hPa 0,0 l/m 0,0 km/h (0 Bft) 0 min 0 min 0,0 km/h (0 Bft)
17.05.2012 06:02 15,1 C 2,0 C 0,0 UV-I 0,0 C 46 % 91 % 0 % 1023,9 hPa 0,0 l/m 0,0 km/h (0 Bft) 0 min 0 min 0,0 km/h (0 Bft)
17.05.2012 06:04 15,1 C 2,0 C 0,0 UV-I 0,0 C 46 % 91 % 0 % 1023,9 hPa 0,0 l/m 0,0 km/h (0 Bft) 0 min 0 min 0,0 km/h (0 Bft)
17.05.2012 06:06 15,1 C 2,0 C 0,0 UV-I 0,0 C 46 % 91 % 0 % 1023,9 hPa 0,0 l/m 0,0 km/h (0 Bft) 0 min 0 min 0,0 km/h (0 Bft)
17.05.2012 06:08 15,1 C 2,0 C 0,0 UV-I 0,0 C 46 % 91 % 0 % 1023,9 hPa 0,0 l/m 0,0 km/h (0 Bft) 0 min 0 min 0,0 km/h (0 Bft)
17.05.2012 06:10 15,1 C 2,0 C 0,0 UV-I 0,0 C 46 % 91 % 0 % 1023,9 hPa 0,0 l/m 0,0 km/h (0 Bft) 0 min 0 min 0,0 km/h (0 Bft)
17.05.2012 06:12 15,1 C 2,1 C 0,0 UV-I 0,0 C 46 % 91 % 0 % 1023,9 hPa 0,0 l/m 0,0 km/h (0 Bft) 0 min 0 min 0,0 km/h (0 Bft)
17.05.2012 06:14 15,1 C 2,1 C 0,0 UV-I 0,0 C 46 % 91 % 0 % 1023,9 hPa 0,0 l/m 0,0 km/h (0 Bft) 0 min 0 min 0,0 km/h (0 Bft)
17.05.2012 06:16 15,1 C 2,0 C 0,0 UV-I 0,0 C 46 % 91 % 0 % 1023,9 hPa 0,0 l/m 0,0 km/h (0 Bft) 0 min 0 min 0,0 km/h (0 Bft)
17.05.2012 06:18 15,1 C 2,0 C 0,0 UV-I 0,0 C 46 % 91 % 0 % 1024,0 hPa 0,0 l/m 0,0 km/h (0 Bft) 0 min 0 min 0,0 km/h (0 Bft)
17.05.2012 06:20 15,1 C 2,0 C 0,0 UV-I 0,0 C 46 % 91 % 0 % 1024,0 hPa 0,0 l/m 0,0 km/h (0 Bft) 0 min 0 min 0,0 km/h (0 Bft)
17.05.2012 06:22 15,1 C 1,9 C 0,0 UV-I 0,0 C 46 % 91 % 0 % 1024,0 hPa 0,0 l/m 0,0 km/h (0 Bft) 0 min 0 min 0,0 km/h (0 Bft)
17.05.2012 06:24 15,1 C 1,9 C 0,0 UV-I 0,0 C 46 % 91 % 0 % 1024,0 hPa 0,0 l/m 0,0 km/h (0 Bft) 0 min 0 min 0,0 km/h (0 Bft)
17.05.2012 06:26 15,1 C 1,9 C 0,0 UV-I 0,0 C 46 % 91 % 0 % 1024,0 hPa 0,0 l/m 0,0 km/h (0 Bft) 0 min 0 min 0,0 km/h (0 Bft)
17.05.2012 06:28 15,1 C 1,9 C 0,0 UV-I 0,0 C 46 % 91 % 0 % 1024,0 hPa 0,0 l/m 0,0 km/h (0 Bft) 0 min 0 min 0,0 km/h (0 Bft)
17.05.2012 06:30 15,1 C 1,9 C 0,0 UV-I 0,0 C 46 % 91 % 0 % 1024,0 hPa 0,0 l/m 0,0 km/h (0 Bft) 0 min 0 min 0,0 km/h (0 Bft)
17.05.2012 06:32 14,9 C 2,0 C 0,0 UV-I 0,0 C 46 % 91 % 0 % 1024,0 hPa 0,0 l/m 0,0 km/h (0 Bft) 0 min 0 min 0,0 km/h (0 Bft)
17.05.2012 06:34 15,1 C 2,0 C 0,0 UV-I 0,0 C 46 % 91 % 0 % 1024,0 hPa 0,0 l/m 0,0 km/h (0 Bft) 0 min 0 min 0,0 km/h (0 Bft)
17.05.2012 06:36 15,1 C 2,0 C 0,0 UV-I 0,0 C 46 % 91 % 0 % 1024,0 hPa 0,0 l/m 0,0 km/h (0 Bft) 0 min 0 min 0,0 km/h (0 Bft)
17.05.2012 06:38 15,1 C 2,0 C 0,0 UV-I 0,0 C 46 % 91 % 0 % 1023,7 hPa 0,0 l/m 0,0 km/h (0 Bft) 0 min 0 min 0,0 km/h (0 Bft)
17.05.2012 06:40 14,9 C 2,0 C 0,0 UV-I 0,0 C 46 % 92 % 0 % 1023,7 hPa 0,0 l/m 0,0 km/h (0 Bft) 0 min 0 min 0,0 km/h (0 Bft)
17.05.2012 06:42 15,1 C 2,1 C 0,0 UV-I 0,0 C 46 % 92 % 0 % 1023,7 hPa 0,0 l/m 0,0 km/h (0 Bft) 0 min 0 min 0,0 km/h (0 Bft)
17.05.2012 06:44 14,9 C 2,1 C 0,0 UV-I 0,0 C 46 % 92 % 0 % 1023,7 hPa 0,0 l/m 0,0 km/h (0 Bft) 0 min 0 min 0,0 km/h (0 Bft)
17.05.2012 06:46 14,9 C 2,3 C 0,0 UV-I 0,0 C 46 % 92 % 0 % 1023,7 hPa 0,0 l/m 0,0 km/h (0 Bft) 0 min 0 min 0,0 km/h (0 Bft)
17.05.2012 06:48 14,9 C 2,3 C 0,0 UV-I 0,0 C 46 % 92 % 0 % 1023,7 hPa 0,0 l/m 0,0 km/h (0 Bft) 0 min 0 min 0,0 km/h (0 Bft)
17.05.2012 06:50 14,9 C 2,4 C 0,0 UV-I 0,0 C 46 % 92 % 0 % 1023,7 hPa 0,0 l/m 0,0 km/h (0 Bft) 0 min 0 min 0,0 km/h (0 Bft)
17.05.2012 06:52 14,9 C 2,4 C 0,0 UV-I 0,0 C 46 % 92 % 0 % 1023,7 hPa 0,0 l/m 0,0 km/h (0 Bft) 0 min 0 min 0,0 km/h (0 Bft)
17.05.2012 06:54 14,9 C 2,5 C 0,0 UV-I 0,0 C 46 % 92 % 0 % 1023,7 hPa 0,0 l/m 0,0 km/h (0 Bft) 0 min 0 min 0,0 km/h (0 Bft)
17.05.2012 06:56 15,0 C 2,7 C 0,0 UV-I 0,0 C 46 % 93 % 0 % 1023,7 hPa 0,0 l/m 0,0 km/h (0 Bft) 0 min 0 min 0,0 km/h (0 Bft)
17.05.2012 06:58 14,9 C 2,7 C 0,0 UV-I 0,0 C 46 % 93 % 0 % 1023,7 hPa 0,0 l/m 0,0 km/h (0 Bft) 0 min 0 min 0,0 km/h (0 Bft)
17.05.2012 07:00 15,0 C 2,7 C 0,0 UV-I 0,0 C 46 % 93 % 0 % 1023,7 hPa 0,0 l/m 0,0 km/h (0 Bft) 0 min 0 min 0,0 km/h (0 Bft)
17.05.2012 07:02 14,9 C 2,7 C 0,0 UV-I 0,0 C 46 % 93 % 0 % 1023,7 hPa 0,0 l/m 0,0 km/h (0 Bft) 0 min 0 min 0,0 km/h (0 Bft)
17.05.2012 07:04 15,0 C 2,8 C 0,0 UV-I 0,0 C 46 % 93 % 0 % 1023,7 hPa 0,0 l/m 0,0 km/h (0 Bft) 0 min 0 min 0,0 km/h (0 Bft)
17.05.2012 07:06 15,0 C 2,8 C 0,0 UV-I 0,0 C 46 % 93 % 0 % 1023,7 hPa 0,0 l/m 0,0 km/h (0 Bft) 0 min 0 min 0,0 km/h (0 Bft)
17.05.2012 07:08 15,0 C 2,9 C 0,0 UV-I 0,0 C 47 % 93 % 0 % 1023,7 hPa 0,0 l/m 0,0 km/h (0 Bft) 0 min 0 min 0,0 km/h (0 Bft)
17.05.2012 07:10 15,0 C 3,1 C 0,0 UV-I 0,0 C 47 % 93 % 0 % 1023,7 hPa 0,0 l/m 0,0 km/h (0 Bft) 0 min 0 min 0,0 km/h (0 Bft)
17.05.2012 07:12 15,0 C 3,1 C 0,0 UV-I 0,0 C 47 % 93 % 0 % 1023,7 hPa 0,0 l/m 0,0 km/h (0 Bft) 0 min 0 min 5,2 km/h (1 Bft)
17.05.2012 07:14 15,0 C 3,1 C 0,0 UV-I 0,0 C 47 % 93 % 0 % 1023,7 hPa 0,0 l/m 0,0 km/h (0 Bft) 0 min 0 min 5,2 km/h (1 Bft)
17.05.2012 07:16 15,0 C 3,2 C 0,0 UV-I 0,0 C 46 % 93 % 0 % 1023,7 hPa 0,0 l/m 0,0 km/h (0 Bft) 0 min 0 min 0,0 km/h (0 Bft)
17.05.2012 07:18 15,0 C 3,2 C 0,0 UV-I 0,0 C 47 % 93 % 0 % 1023,3 hPa 0,0 l/m 0,4 km/h (0 Bft) 0 min 0 min 5,2 km/h (1 Bft)
17.05.2012 07:20 15,0 C 3,3 C 0,0 UV-I 0,0 C 47 % 93 % 0 % 1023,3 hPa 0,0 l/m 0,4 km/h (0 Bft) 0 min 0 min 5,2 km/h (1 Bft)
17.05.2012 07:22 15,0 C 3,5 C 0,0 UV-I 0,0 C 47 % 93 % 0 % 1023,3 hPa 0,0 l/m 0,4 km/h (0 Bft) 0 min 0 min 6,8 km/h (2 Bft)
17.05.2012 07:24 15,0 C 3,5 C 0,0 UV-I 0,0 C 47 % 93 % 0 % 1023,3 hPa 0,0 l/m 0,4 km/h (0 Bft) 0 min 0 min 6,8 km/h (2 Bft)
17.05.2012 07:26 15,0 C 3,5 C 0,0 UV-I 0,0 C 47 % 93 % 0 % 1023,3 hPa 0,0 l/m 0,8 km/h (0 Bft) 0 min 0 min 5,2 km/h (1 Bft)
17.05.2012 07:28 15,0 C 3,6 C 0,0 UV-I 0,0 C 47 % 93 % 0 % 1023,3 hPa 0,0 l/m 1,2 km/h (1 Bft) 0 min 0 min 5,2 km/h (1 Bft)
17.05.2012 07:30 15,0 C 3,7 C 0,0 UV-I 0,0 C 47 % 93 % 0 % 1023,3 hPa 0,0 l/m 1,2 km/h (1 Bft) 0 min 0 min 6,8 km/h (2 Bft)
17.05.2012 07:32 15,0 C 3,7 C 0,0 UV-I 0,0 C 47 % 93 % 0 % 1023,3 hPa 0,0 l/m 0,8 km/h (0 Bft) 0 min 0 min 4,0 km/h (1 Bft)
17.05.2012 07:34 15,0 C 3,9 C 0,0 UV-I 0,0 C 47 % 93 % 0 % 1023,3 hPa 0,0 l/m 1,6 km/h (1 Bft) 0 min 0 min 6,0 km/h (2 Bft)
17.05.2012 07:36 15,0 C 3,9 C 0,0 UV-I 0,0 C 47 % 93 % 0 % 1023,3 hPa 0,0 l/m 1,6 km/h (1 Bft) 0 min 0 min 6,0 km/h (2 Bft)
17.05.2012 07:38 14,9 C 4,0 C 0,0 UV-I 0,0 C 47 % 93 % 0 % 1023,4 hPa 0,0 l/m 2,0 km/h (1 Bft) 0 min 0 min 5,2 km/h (1 Bft)
17.05.2012 07:40 15,0 C 4,1 C 0,0 UV-I 0,0 C 47 % 93 % 0 % 1023,4 hPa 0,0 l/m 2,0 km/h (1 Bft) 0 min 0 min 8,0 km/h (2 Bft)
17.05.2012 07:42 14,9 C 4,3 C 0,0 UV-I 0,0 C 47 % 93 % 0 % 1023,4 hPa 0,0 l/m 2,0 km/h (1 Bft) 0 min 0 min 6,4 km/h (2 Bft)
17.05.2012 07:44 15,0 C 4,3 C 0,0 UV-I 0,0 C 47 % 93 % 0 % 1023,4 hPa 0,0 l/m 1,6 km/h (1 Bft) 0 min 0 min 0,0 km/h (0 Bft)
17.05.2012 07:46 14,9 C 4,3 C 0,0 UV-I 0,0 C 47 % 93 % 0 % 1023,4 hPa 0,0 l/m 1,2 km/h (1 Bft) 0 min 0 min 0,0 km/h (0 Bft)
17.05.2012 07:48 15,0 C 4,4 C 0,0 UV-I 0,0 C 47 % 93 % 0 % 1023,4 hPa 0,0 l/m 0,8 km/h (0 Bft) 0 min 0 min 0,0 km/h (0 Bft)
17.05.2012 07:50 14,9 C 4,4 C 0,0 UV-I 0,0 C 47 % 93 % 0 % 1023,4 hPa 0,0 l/m 0,4 km/h (0 Bft) 0 min 0 min 7,2 km/h (2 Bft)
17.05.2012 07:52 14,9 C 4,7 C 0,0 UV-I 0,0 C 47 % 93 % 0 % 1023,4 hPa 0,0 l/m 0,8 km/h (0 Bft) 0 min 0 min 7,2 km/h (2 Bft)
17.05.2012 07:54 14,9 C 4,7 C 0,0 UV-I 0,0 C 47 % 93 % 0 % 1023,4 hPa 0,0 l/m 1,6 km/h (1 Bft) 0 min 0 min 7,6 km/h (2 Bft)
17.05.2012 07:56 15,1 C 4,8 C 0,0 UV-I 0,0 C 47 % 93 % 0 % 1023,4 hPa 0,0 l/m 2,0 km/h (1 Bft) 0 min 0 min 7,6 km/h (2 Bft)
17.05.2012 07:58 14,9 C 4,9 C 0,0 UV-I 0,0 C 47 % 93 % 0 % 1023,3 hPa 0,0 l/m 2,8 km/h (1 Bft) 0 min 0 min 6,4 km/h (2 Bft)
17.05.2012 08:00 14,9 C 5,1 C 0,0 UV-I 0,0 C 47 % 93 % 0 % 1023,3 hPa 0,0 l/m 3,6 km/h (1 Bft) 0 min 0 min 10,0 km/h (2 Bft)
17.05.2012 08:02 15,1 C 5,2 C 0,0 UV-I 0,0 C 46 % 93 % 0 % 1023,3 hPa 0,0 l/m 4,0 km/h (1 Bft) 0 min 0 min 8,4 km/h (2 Bft)
17.05.2012 08:04 15,1 C 5,3 C 0,1 UV-I 0,0 C 46 % 93 % 0 % 1023,3 hPa 0,0 l/m 4,4 km/h (1 Bft) 0 min 0 min 7,6 km/h (2 Bft)
17.05.2012 08:06 15,1 C 5,5 C 0,1 UV-I 0,0 C 46 % 93 % 0 % 1023,3 hPa 0,0 l/m 4,0 km/h (1 Bft) 0 min 0 min 7,6 km/h (2 Bft)
17.05.2012 08:08 15,1 C 5,5 C 0,1 UV-I 0,0 C 47 % 92 % 0 % 1023,3 hPa 0,0 l/m 3,2 km/h (1 Bft) 0 min 0 min 6,8 km/h (2 Bft)
17.05.2012 08:10 15,1 C 5,6 C 0,1 UV-I 0,0 C 46 % 92 % 0 % 1023,3 hPa 0,0 l/m 3,2 km/h (1 Bft) 0 min 0 min 6,8 km/h (2 Bft)
17.05.2012 08:12 15,1 C 5,7 C 0,1 UV-I 0,0 C 46 % 92 % 0 % 1023,3 hPa 0,0 l/m 2,4 km/h (1 Bft) 0 min 0 min 5,6 km/h (1 Bft)
17.05.2012 08:14 15,1 C 5,9 C 0,1 UV-I 0,0 C 46 % 92 % 0 % 1023,3 hPa 0,0 l/m 2,4 km/h (1 Bft) 0 min 0 min 4,0 km/h (1 Bft)
17.05.2012 08:16 15,1 C 5,9 C 0,1 UV-I 0,7 C 47 % 92 % 20 % 1023,3 hPa 0,0 l/m 2,8 km/h (1 Bft) 0 min 0 min 10,4 km/h (2 Bft)
17.05.2012 08:18 15,1 C 6,0 C 0,1 UV-I 2,0 C 47 % 91 % 57 % 1023,6 hPa 0,0 l/m 2,8 km/h (1 Bft) 0 min 0 min 10,4 km/h (2 Bft)
17.05.2012 08:20 15,1 C 6,1 C 0,1 UV-I 3,1 C 46 % 91 % 89 % 1023,6 hPa 0,0 l/m 2,8 km/h (1 Bft) 2 min 0 min 10,4 km/h (2 Bft)
17.05.2012 08:22 15,1 C 6,3 C 0,1 UV-I 4,3 C 46 % 91 % 100 % 1023,6 hPa 0,0 l/m 2,4 km/h (1 Bft) 2 min 0 min 0,0 km/h (0 Bft)
17.05.2012 08:24 15,1 C 6,3 C 0,1 UV-I 5,6 C 47 % 91 % 100 % 1023,6 hPa 0,0 l/m 3,2 km/h (1 Bft) 2 min 0 min 5,2 km/h (1 Bft)
17.05.2012 08:26 15,2 C 6,4 C 0,1 UV-I 6,2 C 46 % 91 % 100 % 1023,6 hPa 0,0 l/m 3,2 km/h (1 Bft) 2 min 0 min 6,4 km/h (2 Bft)
17.05.2012 08:28 15,2 C 6,6 C 0,2 UV-I 6,7 C 46 % 91 % 100 % 1023,6 hPa 0,0 l/m 2,8 km/h (1 Bft) 2 min 0 min 6,4 km/h (2 Bft)
17.05.2012 08:30 15,2 C 6,7 C 0,2 UV-I 7,4 C 47 % 90 % 100 % 1023,6 hPa 0,0 l/m 2,4 km/h (1 Bft) 2 min 0 min 6,0 km/h (2 Bft)
17.05.2012 08:32 15,2 C 6,9 C 0,2 UV-I 7,7 C 47 % 90 % 100 % 1023,6 hPa 0,0 l/m 2,8 km/h (1 Bft) 2 min 0 min 7,2 km/h (2 Bft)
17.05.2012 08:34 15,2 C 6,8 C 0,3 UV-I 8,2 C 47 % 90 % 100 % 1023,6 hPa 0,0 l/m 3,2 km/h (1 Bft) 2 min 0 min 7,2 km/h (2 Bft)
17.05.2012 08:36 15,2 C 7,1 C 0,3 UV-I 8,2 C 47 % 89 % 100 % 1023,6 hPa 0,0 l/m 2,8 km/h (1 Bft) 2 min 0 min 6,4 km/h (2 Bft)
17.05.2012 08:38 15,2 C 7,2 C 0,4 UV-I 8,4 C 46 % 90 % 100 % 1023,2 hPa 0,0 l/m 2,8 km/h (1 Bft) 2 min 0 min 9,6 km/h (2 Bft)
17.05.2012 08:40 15,2 C 7,3 C 0,4 UV-I 8,5 C 47 % 89 % 100 % 1023,2 hPa 0,0 l/m 3,6 km/h (1 Bft) 2 min 0 min 9,6 km/h (2 Bft)
17.05.2012 08:42 15,2 C 7,7 C 0,4 UV-I 8,4 C 47 % 89 % 100 % 1023,2 hPa 0,0 l/m 3,2 km/h (1 Bft) 2 min 0 min 5,2 km/h (1 Bft)
17.05.2012 08:44 15,2 C 7,6 C 0,5 UV-I 8,7 C 47 % 89 % 100 % 1023,2 hPa 0,0 l/m 3,2 km/h (1 Bft) 2 min 0 min 6,4 km/h (2 Bft)
17.05.2012 08:46 15,1 C 7,9 C 0,5 UV-I 8,6 C 47 % 88 % 100 % 1023,2 hPa 0,0 l/m 3,2 km/h (1 Bft) 2 min 0 min 6,4 km/h (2 Bft)
17.05.2012 08:48 15,1 C 8,0 C 0,6 UV-I 8,7 C 47 % 88 % 100 % 1023,2 hPa 0,0 l/m 2,8 km/h (1 Bft) 2 min 0 min 4,8 km/h (1 Bft)
17.05.2012 08:50 15,1 C 8,1 C 0,6 UV-I 8,9 C 47 % 88 % 100 % 1023,2 hPa 0,0 l/m 2,0 km/h (1 Bft) 2 min 0 min 5,6 km/h (1 Bft)
17.05.2012 08:52 15,1 C 8,2 C 0,6 UV-I 9,0 C 46 % 88 % 100 % 1023,2 hPa 0,0 l/m 1,6 km/h (1 Bft) 2 min 0 min 6,4 km/h (2 Bft)
17.05.2012 08:54 15,1 C 8,5 C 0,8 UV-I 9,0 C 47 % 87 % 100 % 1023,2 hPa 0,0 l/m 1,6 km/h (1 Bft) 2 min 0 min 6,4 km/h (2 Bft)
17.05.2012 08:56 15,1 C 8,6 C 0,8 UV-I 9,2 C 47 % 87 % 100 % 1023,2 hPa 0,0 l/m 2,0 km/h (1 Bft) 2 min 0 min 4,8 km/h (1 Bft)
17.05.2012 08:58 15,1 C 8,7 C 1,2 UV-I 9,2 C 46 % 87 % 100 % 1023,5 hPa 0,0 l/m 2,4 km/h (1 Bft) 2 min 0 min 4,8 km/h (1 Bft)
17.05.2012 09:00 15,1 C 8,9 C 1,2 UV-I 8,8 C 47 % 85 % 100 % 1023,5 hPa 0,0 l/m 3,2 km/h (1 Bft) 2 min 0 min 11,6 km/h (2 Bft)
17.05.2012 09:02 15,3 C 8,9 C 1,2 UV-I 8,9 C 47 % 85 % 100 % 1023,5 hPa 0,0 l/m 2,8 km/h (1 Bft) 2 min 0 min 9,6 km/h (2 Bft)
17.05.2012 09:04 15,2 C 9,1 C 1,5 UV-I 9,1 C 47 % 85 % 100 % 1023,5 hPa 0,0 l/m 2,8 km/h (1 Bft) 2 min 0 min 0,0 km/h (0 Bft)
17.05.2012 09:06 15,2 C 9,3 C 1,5 UV-I 9,1 C 47 % 84 % 100 % 1023,5 hPa 0,0 l/m 2,4 km/h (1 Bft) 2 min 0 min 0,0 km/h (0 Bft)
17.05.2012 09:08 15,2 C 9,5 C 1,6 UV-I 9,2 C 47 % 85 % 100 % 1023,5 hPa 0,0 l/m 1,6 km/h (1 Bft) 2 min 0 min 0,0 km/h (0 Bft)
17.05.2012 09:10 15,2 C 9,6 C 1,6 UV-I 9,3 C 47 % 84 % 100 % 1023,5 hPa 0,0 l/m 1,2 km/h (1 Bft) 2 min 0 min 0,0 km/h (0 Bft)
17.05.2012 09:12 15,2 C 9,7 C 1,6 UV-I 9,5 C 47 % 84 % 100 % 1023,5 hPa 0,0 l/m 0,4 km/h (0 Bft) 2 min 0 min 0,0 km/h (0 Bft)
17.05.2012 09:14 15,2 C 9,9 C 1,8 UV-I 9,4 C 47 % 82 % 100 % 1023,5 hPa 0,0 l/m 1,2 km/h (1 Bft) 2 min 0 min 6,4 km/h (2 Bft)
17.05.2012 09:16 15,4 C 10,1 C 1,8 UV-I 9,3 C 46 % 82 % 100 % 1023,5 hPa 0,0 l/m 0,8 km/h (0 Bft) 2 min 0 min 6,4 km/h (2 Bft)
17.05.2012 09:18 15,2 C 10,1 C 2,3 UV-I 9,7 C 47 % 82 % 100 % 1023,2 hPa 0,0 l/m 0,8 km/h (0 Bft) 2 min 0 min 4,8 km/h (1 Bft)
17.05.2012 09:20 15,4 C 10,3 C 2,3 UV-I 9,7 C 46 % 81 % 100 % 1023,2 hPa 0,0 l/m 1,2 km/h (1 Bft) 2 min 0 min 4,8 km/h (1 Bft)
17.05.2012 09:22 15,4 C 10,3 C 2,3 UV-I 9,8 C 46 % 81 % 100 % 1023,2 hPa 0,0 l/m 1,6 km/h (1 Bft) 2 min 0 min 9,2 km/h (2 Bft)
17.05.2012 09:24 15,4 C 10,4 C 2,5 UV-I 9,6 C 46 % 80 % 100 % 1023,2 hPa 0,0 l/m 1,6 km/h (1 Bft) 2 min 0 min 9,2 km/h (2 Bft)
17.05.2012 09:26 15,3 C 10,4 C 2,5 UV-I 9,4 C 47 % 80 % 100 % 1023,2 hPa 0,0 l/m 1,6 km/h (1 Bft) 2 min 0 min 6,8 km/h (2 Bft)
17.05.2012 09:28 15,3 C 10,6 C 2,7 UV-I 9,2 C 46 % 79 % 100 % 1023,2 hPa 0,0 l/m 2,4 km/h (1 Bft) 2 min 0 min 6,8 km/h (2 Bft)
17.05.2012 09:30 15,3 C 10,7 C 2,7 UV-I 9,2 C 46 % 78 % 100 % 1023,2 hPa 0,0 l/m 2,0 km/h (1 Bft) 2 min 0 min 5,6 km/h (1 Bft)
17.05.2012 09:32 15,3 C 10,8 C 2,7 UV-I 9,3 C 46 % 77 % 100 % 1023,2 hPa 0,0 l/m 2,0 km/h (1 Bft) 2 min 0 min 0,0 km/h (0 Bft)
17.05.2012 09:34 15,3 C 10,8 C 2,7 UV-I 9,5 C 46 % 77 % 100 % 1023,2 hPa 0,0 l/m 1,6 km/h (1 Bft) 2 min 0 min 0,0 km/h (0 Bft)
17.05.2012 09:36 15,3 C 11,1 C 2,7 UV-I 9,4 C 46 % 76 % 100 % 1023,2 hPa 0,0 l/m 1,6 km/h (1 Bft) 2 min 0 min 6,0 km/h (2 Bft)
17.05.2012 09:38 15,5 C 11,2 C 3,2 UV-I 9,3 C 46 % 76 % 100 % 1023,1 hPa 0,0 l/m 1,6 km/h (1 Bft) 2 min 0 min 6,0 km/h (2 Bft)
17.05.2012 09:40 15,5 C 11,2 C 3,2 UV-I 9,2 C 46 % 74 % 100 % 1023,1 hPa 0,0 l/m 1,2 km/h (1 Bft) 2 min 0 min 6,8 km/h (2 Bft)
17.05.2012 09:42 15,5 C 11,3 C 3,2 UV-I 9,2 C 46 % 74 % 100 % 1023,1 hPa 0,0 l/m 1,6 km/h (1 Bft) 2 min 0 min 6,8 km/h (2 Bft)
17.05.2012 09:47 15,4 C 11,5 C 3,7 UV-I 8,9 C 46 % 72 % 100 % 1023,1 hPa 0,0 l/m 2,0 km/h (1 Bft) 2 min 0 min 0,0 km/h (0 Bft)
17.05.2012 09:52 15,6 C 11,6 C 3,7 UV-I 8,7 C 46 % 71 % 100 % 1023,1 hPa 0,0 l/m 4,4 km/h (1 Bft) 2 min 0 min 12,8 km/h (3 Bft)
17.05.2012 09:57 15,6 C 11,6 C 3,9 UV-I 8,7 C 46 % 68 % 100 % 1022,8 hPa 0,0 l/m 4,0 km/h (1 Bft) 2 min 0 min 4,0 km/h (1 Bft)
17.05.2012 10:02 15,6 C 11,9 C 3,9 UV-I 8,7 C 46 % 68 % 100 % 1022,8 hPa 0,0 l/m 2,8 km/h (1 Bft) 2 min 0 min 0,0 km/h (0 Bft)
17.05.2012 10:07 15,6 C 12,1 C 4,1 UV-I 8,4 C 46 % 68 % 100 % 1022,8 hPa 0,0 l/m 2,4 km/h (1 Bft) 2 min 0 min 10,0 km/h (2 Bft)
17.05.2012 10:12 15,7 C 12,3 C 4,1 UV-I 8,4 C 46 % 66 % 100 % 1022,8 hPa 0,0 l/m 2,4 km/h (1 Bft) 2 min 0 min 0,0 km/h (0 Bft)
17.05.2012 10:17 15,6 C 12,3 C 4,6 UV-I 9,1 C 46 % 65 % 100 % 1022,8 hPa 0,0 l/m 2,0 km/h (1 Bft) 2 min 0 min 0,0 km/h (0 Bft)
17.05.2012 10:22 15,7 C 12,4 C 4,6 UV-I 9,0 C 46 % 64 % 100 % 1022,8 hPa 0,0 l/m 3,2 km/h (1 Bft) 2 min 0 min 10,4 km/h (2 Bft)
17.05.2012 10:27 15,8 C 12,7 C 4,7 UV-I 8,3 C 45 % 65 % 100 % 1022,8 hPa 0,0 l/m 4,4 km/h (1 Bft) 2 min 0 min 12,8 km/h (3 Bft)
17.05.2012 10:32 15,8 C 12,8 C 4,7 UV-I 8,0 C 45 % 64 % 100 % 1022,8 hPa 0,0 l/m 3,6 km/h (1 Bft) 2 min 0 min 4,8 km/h (1 Bft)
17.05.2012 10:37 15,8 C 12,8 C 4,9 UV-I 8,2 C 45 % 62 % 100 % 1022,9 hPa 0,0 l/m 3,6 km/h (1 Bft) 2 min 0 min 4,8 km/h (1 Bft)
17.05.2012 10:42 15,9 C 12,9 C 4,9 UV-I 8,2 C 45 % 61 % 100 % 1022,9 hPa 0,0 l/m 2,4 km/h (1 Bft) 2 min 0 min 6,0 km/h (2 Bft)
17.05.2012 10:47 15,9 C 13,1 C 4,4 UV-I 8,1 C 45 % 60 % 100 % 1022,9 hPa 0,0 l/m 2,8 km/h (1 Bft) 2 min 0 min 7,6 km/h (2 Bft)
17.05.2012 10:52 15,9 C 13,2 C 4,4 UV-I 7,8 C 45 % 60 % 100 % 1022,9 hPa 0,0 l/m 4,4 km/h (1 Bft) 2 min 0 min 9,6 km/h (2 Bft)
17.05.2012 10:57 15,9 C 13,1 C 4,0 UV-I 7,6 C 45 % 57 % 100 % 1022,3 hPa 0,0 l/m 5,6 km/h (1 Bft) 2 min 0 min 5,2 km/h (1 Bft)
17.05.2012 11:02 15,8 C 13,2 C 4,0 UV-I 8,0 C 45 % 57 % 100 % 1022,3 hPa 0,0 l/m 4,0 km/h (1 Bft) 2 min 0 min 0,0 km/h (0 Bft)
17.05.2012 11:07 16,0 C 13,5 C 4,0 UV-I 7,9 C 44 % 58 % 100 % 1022,3 hPa 0,0 l/m 4,0 km/h (1 Bft) 2 min 0 min 15,3 km/h (3 Bft)
17.05.2012 11:12 15,9 C 13,5 C 4,0 UV-I 7,7 C 44 % 56 % 100 % 1022,3 hPa 0,0 l/m 5,2 km/h (1 Bft) 2 min 0 min 8,0 km/h (2 Bft)
17.05.2012 11:17 16,1 C 13,9 C 4,3 UV-I 7,6 C 44 % 54 % 100 % 1022,1 hPa 0,0 l/m 4,8 km/h (1 Bft) 2 min 0 min 0,0 km/h (0 Bft)
17.05.2012 11:22 16,1 C 13,9 C 4,3 UV-I 7,9 C 44 % 53 % 100 % 1022,1 hPa 0,0 l/m 4,8 km/h (1 Bft) 2 min 0 min 7,2 km/h (2 Bft)
17.05.2012 11:27 16,2 C 13,8 C 3,3 UV-I 7,3 C 44 % 53 % 100 % 1022,1 hPa 0,0 l/m 5,2 km/h (1 Bft) 2 min 0 min 5,6 km/h (1 Bft)
17.05.2012 11:32 16,2 C 13,7 C 3,3 UV-I 6,9 C 44 % 53 % 100 % 1022,1 hPa 0,0 l/m 5,2 km/h (1 Bft) 2 min 0 min 6,4 km/h (2 Bft)
17.05.2012 11:37 16,3 C 13,9 C 3,1 UV-I 6,5 C 44 % 52 % 100 % 1021,9 hPa 0,0 l/m 4,4 km/h (1 Bft) 2 min 0 min 8,4 km/h (2 Bft)
17.05.2012 11:42 16,2 C 13,9 C 3,1 UV-I 6,6 C 43 % 51 % 100 % 1021,9 hPa 0,0 l/m 6,0 km/h (2 Bft) 2 min 0 min 4,8 km/h (1 Bft)
17.05.2012 11:47 16,4 C 13,9 C 3,3 UV-I 6,7 C 44 % 51 % 100 % 1021,9 hPa 0,0 l/m 6,0 km/h (2 Bft) 2 min 0 min 8,0 km/h (2 Bft)
17.05.2012 11:48 16,4 C 13,9 C 3,3 UV-I 6,5 C 44 % 50 % 100 % 1021,9 hPa 0,0 l/m 6,0 km/h (2 Bft) 1 min 0 min 6,0 km/h (2 Bft)
17.05.2012 11:50 16,4 C 13,9 C 3,3 UV-I 6,5 C 44 % 50 % 100 % 1021,9 hPa 0,0 l/m 6,0 km/h (2 Bft) 2 min 0 min 22,1 km/h (4 Bft)
17.05.2012 11:52 16,4 C 13,9 C 3,3 UV-I 6,3 C 44 % 50 % 100 % 1021,9 hPa 0,0 l/m 4,8 km/h (1 Bft) 2 min 0 min 12,0 km/h (2 Bft)
17.05.2012 11:54 16,5 C 13,9 C 2,9 UV-I 6,3 C 44 % 50 % 100 % 1021,9 hPa 0,0 l/m 5,6 km/h (1 Bft) 2 min 0 min 12,0 km/h (2 Bft)
17.05.2012 11:56 16,5 C 14,1 C 2,9 UV-I 6,0 C 44 % 51 % 100 % 1021,9 hPa 0,0 l/m 5,2 km/h (1 Bft) 2 min 0 min 11,2 km/h (2 Bft)
17.05.2012 11:58 16,5 C 14,0 C 2,7 UV-I 6,0 C 43 % 51 % 100 % 1021,7 hPa 0,0 l/m 4,4 km/h (1 Bft) 2 min 0 min 11,2 km/h (2 Bft)
17.05.2012 12:00 16,6 C 14,1 C 2,7 UV-I 6,1 C 43 % 51 % 100 % 1021,7 hPa 0,0 l/m 4,4 km/h (1 Bft) 2 min 0 min 6,0 km/h (2 Bft)
17.05.2012 12:02 16,6 C 14,0 C 2,7 UV-I 6,3 C 43 % 51 % 100 % 1021,7 hPa 0,0 l/m 4,0 km/h (1 Bft) 2 min 0 min 6,4 km/h (2 Bft)
17.05.2012 12:04 16,6 C 14,0 C 2,7 UV-I 6,3 C 43 % 51 % 100 % 1021,7 hPa 0,0 l/m 4,0 km/h (1 Bft) 2 min 0 min 6,4 km/h (2 Bft)
17.05.2012 12:06 16,6 C 14,0 C 2,7 UV-I 6,3 C 43 % 51 % 100 % 1021,7 hPa 0,0 l/m 4,4 km/h (1 Bft) 2 min 0 min 8,0 km/h (2 Bft)
17.05.2012 12:08 16,6 C 14,0 C 2,4 UV-I 6,1 C 43 % 51 % 100 % 1021,7 hPa 0,0 l/m 4,8 km/h (1 Bft) 2 min 0 min 8,0 km/h (2 Bft)
17.05.2012 12:10 16,6 C 14,0 C 2,4 UV-I 5,8 C 43 % 51 % 100 % 1021,7 hPa 0,0 l/m 5,6 km/h (1 Bft) 2 min 0 min 6,0 km/h (2 Bft)
17.05.2012 12:12 16,6 C 14,0 C 2,4 UV-I 5,6 C 43 % 52 % 100 % 1021,7 hPa 0,0 l/m 6,0 km/h (2 Bft) 2 min 0 min 6,0 km/h (2 Bft)
17.05.2012 12:14 16,7 C 14,0 C 2,3 UV-I 5,5 C 42 % 53 % 100 % 1021,7 hPa 0,0 l/m 6,0 km/h (2 Bft) 2 min 0 min 10,0 km/h (2 Bft)
17.05.2012 12:16 16,7 C 14,0 C 2,3 UV-I 5,4 C 42 % 53 % 100 % 1021,7 hPa 0,0 l/m 6,0 km/h (2 Bft) 2 min 0 min 10,0 km/h (2 Bft)
17.05.2012 12:18 16,7 C 13,9 C 2,2 UV-I 5,4 C 42 % 51 % 100 % 1021,6 hPa 0,0 l/m 5,2 km/h (1 Bft) 2 min 0 min 6,4 km/h (2 Bft)
17.05.2012 12:20 16,7 C 13,9 C 2,2 UV-I 5,4 C 42 % 52 % 100 % 1021,6 hPa 0,0 l/m 5,2 km/h (1 Bft) 2 min 0 min 11,2 km/h (2 Bft)
17.05.2012 12:22 16,8 C 13,9 C 2,2 UV-I 5,5 C 42 % 53 % 100 % 1021,6 hPa 0,0 l/m 4,4 km/h (1 Bft) 2 min 0 min 11,2 km/h (2 Bft)
17.05.2012 12:24 16,8 C 13,9 C 2,4 UV-I 5,9 C 43 % 53 % 100 % 1021,6 hPa 0,0 l/m 4,0 km/h (1 Bft) 2 min 0 min 6,4 km/h (2 Bft)
17.05.2012 12:26 16,8 C 13,9 C 2,4 UV-I 5,9 C 42 % 53 % 100 % 1021,6 hPa 0,0 l/m 3,6 km/h (1 Bft) 2 min 0 min 6,4 km/h (2 Bft)
17.05.2012 12:28 16,8 C 13,7 C 2,4 UV-I 5,8 C 42 % 54 % 100 % 1021,6 hPa 0,0 l/m 3,6 km/h (1 Bft) 2 min 0 min 6,4 km/h (2 Bft)
17.05.2012 12:30 16,8 C 13,7 C 2,4 UV-I 5,4 C 42 % 54 % 100 % 1021,6 hPa 0,0 l/m 3,2 km/h (1 Bft) 2 min 0 min 7,2 km/h (2 Bft)
17.05.2012 12:32 16,8 C 13,7 C 2,4 UV-I 5,2 C 42 % 54 % 100 % 1021,6 hPa 0,0 l/m 3,6 km/h (1 Bft) 2 min 0 min 10,8 km/h (2 Bft)
17.05.2012 12:34 16,9 C 13,7 C 2,0 UV-I 4,7 C 42 % 53 % 100 % 1021,6 hPa 0,0 l/m 4,8 km/h (1 Bft) 2 min 0 min 12,0 km/h (2 Bft)
17.05.2012 12:36 16,9 C 13,6 C 2,0 UV-I 4,7 C 42 % 53 % 100 % 1021,6 hPa 0,0 l/m 4,4 km/h (1 Bft) 2 min 0 min 12,0 km/h (2 Bft)
17.05.2012 12:38 16,9 C 13,7 C 2,4 UV-I 4,8 C 42 % 54 % 100 % 1021,1 hPa 0,0 l/m 4,4 km/h (1 Bft) 2 min 0 min 5,2 km/h (1 Bft)
17.05.2012 12:40 16,9 C 13,9 C 2,4 UV-I 5,3 C 42 % 55 % 100 % 1021,1 hPa 0,0 l/m 5,6 km/h (1 Bft) 2 min 0 min 13,3 km/h (3 Bft)
17.05.2012 12:42 16,9 C 14,1 C 2,4 UV-I 5,5 C 42 % 54 % 100 % 1021,1 hPa 0,0 l/m 5,6 km/h (1 Bft) 2 min 0 min 13,3 km/h (3 Bft)
17.05.2012 12:44 17,0 C 14,2 C 2,0 UV-I 5,9 C 42 % 53 % 100 % 1021,1 hPa 0,0 l/m 6,0 km/h (2 Bft) 2 min 0 min 10,4 km/h (2 Bft)
17.05.2012 12:46 17,0 C 14,3 C 2,0 UV-I 5,9 C 42 % 54 % 100 % 1021,1 hPa 0,0 l/m 6,8 km/h (2 Bft) 2 min 0 min 10,4 km/h (2 Bft)
17.05.2012 12:48 17,0 C 14,4 C 2,0 UV-I 5,9 C 42 % 53 % 100 % 1021,1 hPa 0,0 l/m 7,6 km/h (2 Bft) 2 min 0 min 14,5 km/h (3 Bft)
17.05.2012 12:50 17,0 C 14,5 C 2,0 UV-I 5,8 C 42 % 53 % 100 % 1021,1 hPa 0,0 l/m 7,6 km/h (2 Bft) 2 min 0 min 14,5 km/h (3 Bft)
17.05.2012 12:52 17,0 C 14,6 C 2,0 UV-I 5,6 C 42 % 52 % 100 % 1021,1 hPa 0,0 l/m 7,6 km/h (2 Bft) 2 min 0 min 8,8 km/h (2 Bft)
17.05.2012 12:54 17,1 C 14,5 C 2,1 UV-I 5,6 C 42 % 52 % 100 % 1021,1 hPa 0,0 l/m 6,8 km/h (2 Bft) 2 min 0 min 15,3 km/h (3 Bft)
17.05.2012 12:56 17,1 C 14,5 C 2,1 UV-I 5,4 C 42 % 49 % 100 % 1021,1 hPa 0,0 l/m 5,6 km/h (1 Bft) 2 min 0 min 15,3 km/h (3 Bft)
17.05.2012 12:58 17,1 C 14,4 C 1,6 UV-I 4,9 C 42 % 50 % 100 % 1020,9 hPa 0,0 l/m 5,2 km/h (1 Bft) 2 min 0 min 5,2 km/h (1 Bft)
17.05.2012 13:00 17,1 C 14,4 C 1,6 UV-I 4,5 C 42 % 50 % 100 % 1020,9 hPa 0,0 l/m 4,4 km/h (1 Bft) 2 min 0 min 9,6 km/h (2 Bft)
17.05.2012 13:02 17,2 C 14,4 C 1,6 UV-I 4,1 C 42 % 49 % 100 % 1020,9 hPa 0,0 l/m 4,4 km/h (1 Bft) 2 min 0 min 9,6 km/h (2 Bft)
17.05.2012 13:04 17,2 C 14,5 C 1,7 UV-I 3,6 C 42 % 49 % 100 % 1020,9 hPa 0,0 l/m 6,0 km/h (2 Bft) 2 min 0 min 17,3 km/h (3 Bft)
17.05.2012 13:06 17,2 C 14,4 C 1,7 UV-I 3,6 C 42 % 50 % 100 % 1020,9 hPa 0,0 l/m 5,2 km/h (1 Bft) 2 min 0 min 17,3 km/h (3 Bft)
17.05.2012 13:08 17,2 C 14,5 C 2,1 UV-I 3,7 C 41 % 50 % 100 % 1020,9 hPa 0,0 l/m 4,8 km/h (1 Bft) 2 min 0 min 8,0 km/h (2 Bft)
17.05.2012 13:10 17,2 C 14,5 C 2,1 UV-I 4,1 C 41 % 50 % 100 % 1020,9 hPa 0,0 l/m 4,8 km/h (1 Bft) 2 min 0 min 4,8 km/h (1 Bft)
17.05.2012 13:12 17,2 C 14,5 C 2,1 UV-I 4,5 C 41 % 50 % 100 % 1020,9 hPa 0,0 l/m 4,8 km/h (1 Bft) 2 min 0 min 9,2 km/h (2 Bft)
17.05.2012 13:14 17,3 C 14,7 C 2,2 UV-I 4,5 C 41 % 48 % 100 % 1020,9 hPa 0,0 l/m 4,4 km/h (1 Bft) 2 min 0 min 11,6 km/h (2 Bft)
17.05.2012 13:16 17,3 C 14,6 C 2,2 UV-I 4,5 C 41 % 48 % 100 % 1020,9 hPa 0,0 l/m 4,4 km/h (1 Bft) 2 min 0 min 23,3 km/h (4 Bft)
17.05.2012 13:18 17,2 C 14,7 C 1,9 UV-I 4,1 C 41 % 47 % 100 % 1020,8 hPa 0,0 l/m 6,0 km/h (2 Bft) 2 min 0 min 23,3 km/h (4 Bft)
17.05.2012 13:20 17,2 C 14,5 C 1,9 UV-I 4,0 C 41 % 48 % 100 % 1020,8 hPa 0,0 l/m 7,2 km/h (2 Bft) 2 min 0 min 23,3 km/h (4 Bft)
17.05.2012 13:22 17,2 C 14,5 C 1,9 UV-I 3,9 C 41 % 48 % 100 % 1020,8 hPa 0,0 l/m 7,2 km/h (2 Bft) 2 min 0 min 8,0 km/h (2 Bft)
17.05.2012 13:24 17,4 C 14,4 C 1,9 UV-I 4,1 C 41 % 48 % 100 % 1020,8 hPa 0,0 l/m 6,8 km/h (2 Bft) 2 min 0 min 6,8 km/h (2 Bft)
17.05.2012 13:26 17,4 C 14,4 C 1,9 UV-I 4,4 C 41 % 48 % 100 % 1020,8 hPa 0,0 l/m 6,0 km/h (2 Bft) 2 min 0 min 5,2 km/h (1 Bft)
17.05.2012 13:28 17,4 C 14,5 C 2,2 UV-I 4,6 C 41 % 48 % 100 % 1020,8 hPa 0,0 l/m 6,4 km/h (2 Bft) 2 min 0 min 8,0 km/h (2 Bft)
17.05.2012 13:30 17,4 C 14,7 C 2,2 UV-I 4,5 C 41 % 48 % 100 % 1020,8 hPa 0,0 l/m 5,2 km/h (1 Bft) 2 min 0 min 14,1 km/h (3 Bft)
17.05.2012 13:32 17,4 C 14,6 C 2,2 UV-I 4,6 C 41 % 48 % 100 % 1020,8 hPa 0,0 l/m 5,6 km/h (1 Bft) 2 min 0 min 14,1 km/h (3 Bft)
17.05.2012 13:34 17,5 C 14,8 C 2,2 UV-I 4,4 C 41 % 47 % 100 % 1020,8 hPa 0,0 l/m 6,0 km/h (2 Bft) 2 min 0 min 10,4 km/h (2 Bft)
17.05.2012 13:36 17,5 C 14,8 C 2,2 UV-I 4,6 C 41 % 46 % 100 % 1020,8 hPa 0,0 l/m 6,8 km/h (2 Bft) 2 min 0 min 10,4 km/h (2 Bft)
17.05.2012 13:38 17,5 C 14,9 C 2,3 UV-I 4,7 C 41 % 47 % 100 % 1020,5 hPa 0,0 l/m 6,0 km/h (2 Bft) 2 min 0 min 8,4 km/h (2 Bft)
17.05.2012 13:40 17,5 C 14,9 C 2,3 UV-I 5,0 C 41 % 47 % 100 % 1020,5 hPa 0,0 l/m 6,0 km/h (2 Bft) 2 min 0 min 5,2 km/h (1 Bft)
17.05.2012 13:42 17,6 C 15,1 C 2,3 UV-I 5,1 C 41 % 47 % 100 % 1020,5 hPa 0,0 l/m 4,8 km/h (1 Bft) 2 min 0 min 5,2 km/h (1 Bft)
17.05.2012 13:44 17,6 C 15,2 C 2,3 UV-I 5,3 C 41 % 48 % 100 % 1020,5 hPa 0,0 l/m 4,8 km/h (1 Bft) 2 min 0 min 9,6 km/h (2 Bft)
17.05.2012 13:46 17,6 C 15,3 C 2,3 UV-I 5,6 C 41 % 47 % 100 % 1020,5 hPa 0,0 l/m 4,8 km/h (1 Bft) 2 min 0 min 9,6 km/h (2 Bft)
17.05.2012 13:48 17,6 C 15,3 C 2,4 UV-I 5,8 C 41 % 47 % 100 % 1020,5 hPa 0,0 l/m 4,8 km/h (1 Bft) 2 min 0 min 14,9 km/h (3 Bft)
17.05.2012 13:50 17,6 C 15,3 C 2,4 UV-I 5,8 C 41 % 46 % 100 % 1020,5 hPa 0,0 l/m 4,8 km/h (1 Bft) 2 min 0 min 14,9 km/h (3 Bft)
17.05.2012 13:52 17,7 C 15,5 C 2,4 UV-I 5,7 C 41 % 47 % 100 % 1020,5 hPa 0,0 l/m 5,6 km/h (1 Bft) 2 min 0 min 13,7 km/h (3 Bft)
17.05.2012 13:54 17,7 C 15,4 C 2,4 UV-I 5,8 C 41 % 47 % 100 % 1020,5 hPa 0,0 l/m 5,2 km/h (1 Bft) 2 min 0 min 13,7 km/h (3 Bft)
17.05.2012 13:56 17,8 C 15,5 C 2,4 UV-I 5,9 C 41 % 47 % 100 % 1020,5 hPa 0,0 l/m 4,8 km/h (1 Bft) 2 min 0 min 4,4 km/h (1 Bft)
17.05.2012 13:58 17,8 C 15,5 C 2,5 UV-I 6,3 C 41 % 45 % 100 % 1020,1 hPa 0,0 l/m 5,6 km/h (1 Bft) 2 min 0 min 7,2 km/h (2 Bft)
17.05.2012 14:00 17,8 C 15,6 C 2,5 UV-I 6,2 C 41 % 46 % 100 % 1020,1 hPa 0,0 l/m 5,6 km/h (1 Bft) 2 min 0 min 8,4 km/h (2 Bft)
17.05.2012 14:02 17,9 C 15,7 C 2,5 UV-I 6,0 C 41 % 46 % 100 % 1020,1 hPa 0,0 l/m 6,8 km/h (2 Bft) 2 min 0 min 16,1 km/h (3 Bft)
17.05.2012 14:04 18,0 C 15,7 C 2,5 UV-I 5,8 C 41 % 46 % 100 % 1020,1 hPa 0,0 l/m 7,6 km/h (2 Bft) 2 min 0 min 8,4 km/h (2 Bft)
17.05.2012 14:06 18,0 C 15,6 C 2,5 UV-I 5,7 C 41 % 46 % 100 % 1020,1 hPa 0,0 l/m 8,4 km/h (2 Bft) 2 min 0 min 10,0 km/h (2 Bft)
17.05.2012 14:08 18,1 C 15,7 C 2,5 UV-I 5,5 C 40 % 45 % 100 % 1020,1 hPa 0,0 l/m 7,6 km/h (2 Bft) 2 min 0 min 10,0 km/h (2 Bft)
17.05.2012 14:10 18,1 C 15,7 C 2,5 UV-I 5,8 C 40 % 46 % 100 % 1020,1 hPa 0,0 l/m 6,4 km/h (2 Bft) 2 min 0 min 8,8 km/h (2 Bft)
17.05.2012 14:12 18,2 C 15,9 C 2,5 UV-I 5,8 C 40 % 44 % 100 % 1020,1 hPa 0,0 l/m 6,8 km/h (2 Bft) 2 min 0 min 11,6 km/h (2 Bft)
17.05.2012 14:14 18,3 C 15,8 C 2,5 UV-I 6,0 C 40 % 44 % 100 % 1020,1 hPa 0,0 l/m 6,0 km/h (2 Bft) 2 min 0 min 11,6 km/h (2 Bft)
17.05.2012 14:16 18,3 C 15,8 C 2,5 UV-I 5,9 C 40 % 44 % 100 % 1020,1 hPa 0,0 l/m 5,6 km/h (1 Bft) 2 min 0 min 14,5 km/h (3 Bft)
17.05.2012 14:18 18,4 C 15,9 C 2,5 UV-I 5,7 C 40 % 45 % 100 % 1018,8 hPa 0,0 l/m 6,0 km/h (2 Bft) 2 min 0 min 14,5 km/h (3 Bft)
17.05.2012 14:20 18,4 C 15,8 C 2,5 UV-I 5,7 C 40 % 46 % 100 % 1018,8 hPa 0,0 l/m 6,4 km/h (2 Bft) 2 min 0 min 9,2 km/h (2 Bft)
17.05.2012 14:22 18,5 C 16,0 C 2,5 UV-I 5,8 C 39 % 46 % 100 % 1018,8 hPa 0,0 l/m 6,0 km/h (2 Bft) 2 min 0 min 13,7 km/h (3 Bft)
17.05.2012 14:24 18,6 C 16,1 C 2,4 UV-I 5,8 C 39 % 45 % 100 % 1018,8 hPa 0,0 l/m 5,6 km/h (1 Bft) 2 min 0 min 13,7 km/h (3 Bft)
17.05.2012 14:26 18,6 C 16,1 C 2,4 UV-I 5,9 C 39 % 46 % 100 % 1018,8 hPa 0,0 l/m 4,8 km/h (1 Bft) 2 min 0 min 6,8 km/h (2 Bft)
17.05.2012 14:28 18,6 C 16,1 C 2,5 UV-I 5,9 C 39 % 46 % 100 % 1018,8 hPa 0,0 l/m 4,8 km/h (1 Bft) 2 min 0 min 9,6 km/h (2 Bft)
17.05.2012 14:30 18,7 C 16,2 C 2,5 UV-I 5,7 C 39 % 46 % 100 % 1018,8 hPa 0,0 l/m 5,6 km/h (1 Bft) 2 min 0 min 14,1 km/h (3 Bft)
17.05.2012 14:32 18,8 C 16,2 C 2,5 UV-I 5,6 C 39 % 47 % 100 % 1018,8 hPa 0,0 l/m 6,4 km/h (2 Bft) 2 min 0 min 14,1 km/h (3 Bft)
17.05.2012 14:34 18,8 C 16,3 C 2,5 UV-I 5,5 C 39 % 46 % 100 % 1018,8 hPa 0,0 l/m 5,6 km/h (1 Bft) 2 min 0 min 7,2 km/h (2 Bft)
17.05.2012 14:36 18,9 C 16,2 C 2,5 UV-I 5,6 C 39 % 46 % 100 % 1018,8 hPa 0,0 l/m 6,8 km/h (2 Bft) 2 min 0 min 12,4 km/h (3 Bft)
17.05.2012 14:38 19,0 C 16,3 C 2,4 UV-I 5,4 C 39 % 46 % 100 % 1018,2 hPa 0,0 l/m 6,8 km/h (2 Bft) 2 min 0 min 12,4 km/h (3 Bft)
17.05.2012 14:40 19,0 C 16,4 C 2,4 UV-I 5,3 C 39 % 46 % 100 % 1018,2 hPa 0,0 l/m 6,8 km/h (2 Bft) 2 min 0 min 12,4 km/h (3 Bft)
17.05.2012 14:42 19,1 C 16,5 C 2,4 UV-I 5,1 C 38 % 44 % 100 % 1018,2 hPa 0,0 l/m 6,4 km/h (2 Bft) 2 min 0 min 8,4 km/h (2 Bft)
17.05.2012 14:44 19,2 C 16,4 C 2,5 UV-I 5,2 C 38 % 46 % 100 % 1018,2 hPa 0,0 l/m 7,6 km/h (2 Bft) 2 min 0 min 9,2 km/h (2 Bft)
17.05.2012 14:46 19,2 C 16,5 C 2,5 UV-I 5,1 C 38 % 46 % 100 % 1018,2 hPa 0,0 l/m 7,6 km/h (2 Bft) 2 min 0 min 9,2 km/h (2 Bft)
17.05.2012 14:48 19,2 C 16,5 C 2,5 UV-I 5,2 C 38 % 45 % 100 % 1018,2 hPa 0,0 l/m 7,2 km/h (2 Bft) 2 min 0 min 22,5 km/h (4 Bft)
17.05.2012 14:50 19,4 C 16,5 C 2,5 UV-I 5,3 C 38 % 44 % 100 % 1018,2 hPa 0,0 l/m 7,2 km/h (2 Bft) 2 min 0 min 22,5 km/h (4 Bft)
17.05.2012 14:52 19,5 C 16,5 C 2,5 UV-I 5,3 C 38 % 44 % 100 % 1018,2 hPa 0,0 l/m 6,8 km/h (2 Bft) 2 min 0 min 10,0 km/h (2 Bft)
17.05.2012 14:54 19,5 C 16,7 C 2,5 UV-I 5,1 C 38 % 45 % 100 % 1018,2 hPa 0,0 l/m 7,2 km/h (2 Bft) 2 min 0 min 13,3 km/h (3 Bft)
17.05.2012 14:56 19,6 C 16,7 C 2,5 UV-I 5,1 C 38 % 44 % 100 % 1018,2 hPa 0,0 l/m 7,2 km/h (2 Bft) 2 min 0 min 16,1 km/h (3 Bft)
17.05.2012 14:58 19,6 C 16,6 C 2,5 UV-I 5,2 C 37 % 44 % 100 % 1018,6 hPa 0,0 l/m 6,4 km/h (2 Bft) 2 min 0 min 16,1 km/h (3 Bft)
17.05.2012 15:00 19,7 C 16,5 C 2,5 UV-I 5,4 C 37 % 44 % 100 % 1018,6 hPa 0,0 l/m 7,6 km/h (2 Bft) 2 min 0 min 13,3 km/h (3 Bft)
17.05.2012 15:02 19,8 C 16,7 C 2,5 UV-I 5,2 C 37 % 43 % 100 % 1018,6 hPa 0,0 l/m 8,4 km/h (2 Bft) 2 min 0 min 14,5 km/h (3 Bft)
17.05.2012 15:04 19,8 C 16,7 C 2,5 UV-I 5,1 C 37 % 42 % 100 % 1018,6 hPa 0,0 l/m 8,4 km/h (2 Bft) 2 min 0 min 10,0 km/h (2 Bft)
17.05.2012 15:06 19,9 C 16,5 C 2,5 UV-I 5,1 C 37 % 41 % 100 % 1018,6 hPa 0,0 l/m 7,6 km/h (2 Bft) 2 min 0 min 10,0 km/h (2 Bft)
17.05.2012 15:08 20,0 C 16,4 C 2,4 UV-I 5,2 C 37 % 43 % 100 % 1018,6 hPa 0,0 l/m 7,6 km/h (2 Bft) 2 min 0 min 6,4 km/h (2 Bft)
17.05.2012 15:10 20,0 C 16,4 C 2,4 UV-I 5,3 C 37 % 45 % 100 % 1018,6 hPa 0,0 l/m 7,2 km/h (2 Bft) 2 min 0 min 11,6 km/h (2 Bft)
17.05.2012 15:12 20,0 C 16,4 C 2,4 UV-I 5,3 C 36 % 44 % 100 % 1018,6 hPa 0,0 l/m 6,8 km/h (2 Bft) 2 min 0 min 11,6 km/h (2 Bft)
17.05.2012 15:14 20,1 C 16,5 C 2,5 UV-I 5,2 C 36 % 44 % 100 % 1018,6 hPa 0,0 l/m 6,8 km/h (2 Bft) 2 min 0 min 21,3 km/h (4 Bft)
17.05.2012 15:16 20,2 C 16,6 C 2,5 UV-I 5,2 C 36 % 45 % 100 % 1018,6 hPa 0,0 l/m 7,6 km/h (2 Bft) 2 min 0 min 21,3 km/h (4 Bft)
17.05.2012 15:18 20,3 C 16,8 C 2,6 UV-I 5,0 C 36 % 44 % 100 % 1018,4 hPa 0,0 l/m 8,4 km/h (2 Bft) 2 min 0 min 16,5 km/h (3 Bft)
17.05.2012 15:20 20,3 C 16,8 C 2,6 UV-I 4,8 C 36 % 43 % 100 % 1018,4 hPa 0,0 l/m 9,2 km/h (2 Bft) 2 min 0 min 15,3 km/h (3 Bft)
17.05.2012 15:22 20,4 C 16,7 C 2,6 UV-I 4,9 C 36 % 44 % 100 % 1018,4 hPa 0,0 l/m 8,0 km/h (2 Bft) 2 min 0 min 7,2 km/h (2 Bft)
17.05.2012 15:24 20,4 C 16,7 C 2,4 UV-I 4,9 C 36 % 44 % 100 % 1018,4 hPa 0,0 l/m 8,4 km/h (2 Bft) 2 min 0 min 9,6 km/h (2 Bft)
17.05.2012 15:26 20,4 C 16,6 C 2,4 UV-I 4,8 C 36 % 43 % 100 % 1018,4 hPa 0,0 l/m 7,2 km/h (2 Bft) 2 min 0 min 11,2 km/h (2 Bft)
17.05.2012 15:28 20,5 C 16,5 C 2,3 UV-I 4,7 C 35 % 43 % 100 % 1018,4 hPa 0,0 l/m 6,4 km/h (2 Bft) 2 min 0 min 11,2 km/h (2 Bft)
17.05.2012 15:30 20,6 C 16,5 C 2,3 UV-I 4,8 C 35 % 44 % 100 % 1018,4 hPa 0,0 l/m 6,0 km/h (2 Bft) 2 min 0 min 10,0 km/h (2 Bft)
17.05.2012 15:32 20,6 C 16,7 C 2,3 UV-I 4,8 C 35 % 43 % 100 % 1018,4 hPa 0,0 l/m 6,8 km/h (2 Bft) 2 min 0 min 13,3 km/h (3 Bft)
17.05.2012 15:34 20,7 C 16,8 C 2,7 UV-I 4,8 C 35 % 44 % 100 % 1018,4 hPa 0,0 l/m 6,4 km/h (2 Bft) 2 min 0 min 13,3 km/h (3 Bft)
17.05.2012 15:36 20,7 C 16,9 C 2,7 UV-I 5,0 C 35 % 42 % 100 % 1018,4 hPa 0,0 l/m 6,4 km/h (2 Bft) 2 min 0 min 12,0 km/h (2 Bft)
17.05.2012 15:38 20,8 C 17,1 C 2,8 UV-I 5,1 C 35 % 42 % 100 % 1018,7 hPa 0,0 l/m 7,2 km/h (2 Bft) 2 min 0 min 12,0 km/h (2 Bft)
17.05.2012 15:40 20,8 C 17,0 C 2,8 UV-I 5,3 C 35 % 42 % 100 % 1018,7 hPa 0,0 l/m 6,8 km/h (2 Bft) 2 min 0 min 10,0 km/h (2 Bft)
17.05.2012 15:42 20,9 C 17,1 C 2,8 UV-I 5,3 C 35 % 41 % 100 % 1018,7 hPa 0,0 l/m 7,6 km/h (2 Bft) 2 min 0 min 17,7 km/h (3 Bft)
17.05.2012 15:44 20,9 C 17,1 C 2,9 UV-I 5,1 C 35 % 41 % 100 % 1018,7 hPa 0,0 l/m 7,6 km/h (2 Bft) 2 min 0 min 17,7 km/h (3 Bft)
17.05.2012 15:46 21,0 C 17,1 C 2,9 UV-I 5,3 C 35 % 41 % 100 % 1018,7 hPa 0,0 l/m 7,6 km/h (2 Bft) 2 min 0 min 9,2 km/h (2 Bft)
17.05.2012 15:48 21,1 C 17,1 C 3,0 UV-I 5,5 C 35 % 40 % 100 % 1018,7 hPa 0,0 l/m 7,2 km/h (2 Bft) 2 min 0 min 10,4 km/h (2 Bft)
17.05.2012 15:50 21,1 C 17,1 C 3,0 UV-I 5,6 C 35 % 42 % 100 % 1018,7 hPa 0,0 l/m 7,2 km/h (2 Bft) 2 min 0 min 16,1 km/h (3 Bft)
17.05.2012 15:52 21,1 C 17,2 C 3,0 UV-I 5,5 C 35 % 41 % 100 % 1018,7 hPa 0,0 l/m 7,2 km/h (2 Bft) 2 min 0 min 16,1 km/h (3 Bft)
17.05.2012 15:54 21,2 C 17,2 C 3,2 UV-I 5,6 C 35 % 41 % 100 % 1018,7 hPa 0,0 l/m 6,0 km/h (2 Bft) 2 min 0 min 8,4 km/h (2 Bft)
17.05.2012 15:56 21,2 C 17,3 C 3,2 UV-I 5,5 C 34 % 41 % 100 % 1018,7 hPa 0,0 l/m 6,8 km/h (2 Bft) 2 min 0 min 8,4 km/h (2 Bft)
17.05.2012 15:58 21,3 C 17,3 C 3,2 UV-I 5,4 C 34 % 41 % 100 % 1017,0 hPa 0,0 l/m 6,4 km/h (2 Bft) 2 min 0 min 7,6 km/h (2 Bft)
17.05.2012 16:00 21,2 C 17,3 C 3,2 UV-I 5,5 C 34 % 41 % 100 % 1017,0 hPa 0,0 l/m 6,0 km/h (2 Bft) 2 min 0 min 8,0 km/h (2 Bft)
17.05.2012 16:02 21,4 C 17,4 C 3,2 UV-I 5,5 C 34 % 42 % 100 % 1017,0 hPa 0,0 l/m 5,2 km/h (1 Bft) 2 min 0 min 8,0 km/h (2 Bft)
17.05.2012 16:04 21,4 C 17,5 C 3,2 UV-I 5,4 C 34 % 41 % 100 % 1017,0 hPa 0,0 l/m 4,8 km/h (1 Bft) 2 min 0 min 7,2 km/h (2 Bft)
17.05.2012 16:06 21,4 C 17,7 C 3,2 UV-I 5,3 C 34 % 41 % 100 % 1017,0 hPa 0,0 l/m 4,4 km/h (1 Bft) 2 min 0 min 4,4 km/h (1 Bft)
17.05.2012 16:08 21,4 C 17,6 C 3,3 UV-I 5,4 C 34 % 38 % 100 % 1017,0 hPa 0,0 l/m 4,8 km/h (1 Bft) 2 min 0 min 10,8 km/h (2 Bft)
17.05.2012 16:10 21,5 C 17,4 C 3,3 UV-I 5,5 C 34 % 39 % 100 % 1017,0 hPa 0,0 l/m 6,4 km/h (2 Bft) 2 min 0 min 14,1 km/h (3 Bft)
17.05.2012 16:12 21,5 C 17,4 C 3,3 UV-I 5,3 C 34 % 39 % 100 % 1017,0 hPa 0,0 l/m 6,0 km/h (2 Bft) 2 min 0 min 14,1 km/h (3 Bft)
17.05.2012 16:14 21,5 C 17,5 C 3,0 UV-I 4,8 C 34 % 40 % 100 % 1017,0 hPa 0,0 l/m 7,2 km/h (2 Bft) 2 min 0 min 16,5 km/h (3 Bft)
17.05.2012 16:16 21,6 C 17,4 C 3,0 UV-I 4,6 C 34 % 41 % 100 % 1017,0 hPa 0,0 l/m 7,6 km/h (2 Bft) 2 min 0 min 16,5 km/h (3 Bft)
17.05.2012 16:18 21,6 C 17,3 C 2,9 UV-I 4,5 C 34 % 40 % 100 % 1017,0 hPa 0,0 l/m 7,6 km/h (2 Bft) 2 min 0 min 10,4 km/h (2 Bft)
17.05.2012 16:20 21,6 C 17,2 C 2,9 UV-I 4,4 C 34 % 40 % 100 % 1017,0 hPa 0,0 l/m 7,2 km/h (2 Bft) 2 min 0 min 9,6 km/h (2 Bft)
17.05.2012 16:22 21,6 C 17,2 C 2,9 UV-I 4,0 C 34 % 40 % 100 % 1017,0 hPa 0,0 l/m 7,2 km/h (2 Bft) 2 min 0 min 11,6 km/h (2 Bft)
17.05.2012 16:24 21,6 C 17,1 C 2,4 UV-I 3,9 C 33 % 40 % 100 % 1017,0 hPa 0,0 l/m 7,2 km/h (2 Bft) 2 min 0 min 11,6 km/h (2 Bft)
17.05.2012 16:26 21,5 C 17,0 C 2,4 UV-I 3,7 C 33 % 39 % 100 % 1017,0 hPa 0,0 l/m 6,4 km/h (2 Bft) 2 min 0 min 6,4 km/h (2 Bft)
17.05.2012 16:28 21,5 C 17,1 C 2,6 UV-I 3,5 C 33 % 40 % 100 % 1017,0 hPa 0,0 l/m 6,0 km/h (2 Bft) 2 min 0 min 11,6 km/h (2 Bft)
17.05.2012 16:30 21,5 C 17,0 C 2,6 UV-I 3,6 C 33 % 39 % 100 % 1017,0 hPa 0,0 l/m 6,8 km/h (2 Bft) 2 min 0 min 11,6 km/h (2 Bft)
17.05.2012 16:32 21,5 C 17,1 C 2,6 UV-I 3,7 C 33 % 40 % 100 % 1017,0 hPa 0,0 l/m 6,4 km/h (2 Bft) 2 min 0 min 13,3 km/h (3 Bft)
17.05.2012 16:34 21,6 C 17,2 C 3,2 UV-I 3,9 C 33 % 40 % 100 % 1017,0 hPa 0,0 l/m 5,6 km/h (1 Bft) 2 min 0 min 13,3 km/h (3 Bft)
17.05.2012 16:36 21,6 C 17,2 C 3,2 UV-I 4,2 C 33 % 39 % 100 % 1017,0 hPa 0,0 l/m 6,0 km/h (2 Bft) 2 min 0 min 11,2 km/h (2 Bft)
17.05.2012 16:38 21,6 C 17,2 C 3,2 UV-I 4,4 C 33 % 40 % 100 % 1017,8 hPa 0,0 l/m 6,8 km/h (2 Bft) 2 min 0 min 12,0 km/h (2 Bft)
17.05.2012 16:40 21,6 C 17,2 C 3,2 UV-I 4,3 C 34 % 40 % 100 % 1017,8 hPa 0,0 l/m 6,8 km/h (2 Bft) 2 min 0 min 12,4 km/h (3 Bft)
17.05.2012 16:42 21,6 C 17,2 C 3,2 UV-I 4,3 C 34 % 41 % 100 % 1017,8 hPa 0,0 l/m 7,6 km/h (2 Bft) 2 min 0 min 12,4 km/h (3 Bft)
17.05.2012 16:44 21,6 C 17,2 C 3,1 UV-I 4,1 C 34 % 41 % 100 % 1017,8 hPa 0,0 l/m 8,0 km/h (2 Bft) 2 min 0 min 7,2 km/h (2 Bft)
17.05.2012 16:46 21,6 C 17,1 C 3,1 UV-I 4,1 C 33 % 41 % 100 % 1017,8 hPa 0,0 l/m 8,0 km/h (2 Bft) 2 min 0 min 17,7 km/h (3 Bft)
17.05.2012 16:48 21,6 C 17,3 C 2,6 UV-I 3,8 C 33 % 41 % 100 % 1017,8 hPa 0,0 l/m 7,6 km/h (2 Bft) 2 min 0 min 17,7 km/h (3 Bft)
17.05.2012 16:50 21,6 C 17,2 C 2,6 UV-I 3,7 C 33 % 41 % 100 % 1017,8 hPa 0,0 l/m 6,8 km/h (2 Bft) 2 min 0 min 6,8 km/h (2 Bft)
17.05.2012 16:52 21,5 C 17,1 C 2,6 UV-I 3,6 C 33 % 40 % 100 % 1017,8 hPa 0,0 l/m 6,4 km/h (2 Bft) 2 min 0 min 14,5 km/h (3 Bft)
17.05.2012 16:54 21,5 C 17,1 C 2,1 UV-I 3,4 C 33 % 40 % 97 % 1017,8 hPa 0,0 l/m 6,0 km/h (2 Bft) 2 min 0 min 14,5 km/h (3 Bft)
17.05.2012 16:56 21,5 C 16,9 C 2,1 UV-I 3,3 C 34 % 40 % 94 % 1017,8 hPa 0,0 l/m 6,4 km/h (2 Bft) 2 min 0 min 7,6 km/h (2 Bft)
17.05.2012 16:58 21,5 C 16,9 C 1,8 UV-I 3,1 C 34 % 41 % 89 % 1016,9 hPa 0,0 l/m 6,4 km/h (2 Bft) 2 min 0 min 8,4 km/h (2 Bft)
17.05.2012 17:00 21,5 C 16,8 C 1,8 UV-I 3,0 C 34 % 42 % 86 % 1016,9 hPa 0,0 l/m 6,4 km/h (2 Bft) 2 min 0 min 8,8 km/h (2 Bft)
17.05.2012 17:02 21,5 C 16,8 C 1,8 UV-I 3,0 C 34 % 42 % 86 % 1016,9 hPa 0,0 l/m 6,4 km/h (2 Bft) 2 min 0 min 8,8 km/h (2 Bft)
17.05.2012 17:04 21,4 C 16,9 C 1,8 UV-I 2,9 C 34 % 43 % 83 % 1016,9 hPa 0,0 l/m 5,6 km/h (1 Bft) 2 min 0 min 7,2 km/h (2 Bft)
17.05.2012 17:06 21,4 C 16,9 C 1,8 UV-I 2,9 C 34 % 43 % 83 % 1016,9 hPa 0,0 l/m 4,8 km/h (1 Bft) 2 min 0 min 7,2 km/h (2 Bft)
17.05.2012 17:08 21,4 C 16,9 C 1,8 UV-I 2,9 C 34 % 42 % 83 % 1016,9 hPa 0,0 l/m 4,8 km/h (1 Bft) 2 min 0 min 4,0 km/h (1 Bft)
17.05.2012 17:10 21,2 C 16,9 C 1,8 UV-I 2,9 C 34 % 42 % 83 % 1016,9 hPa 0,0 l/m 4,8 km/h (1 Bft) 2 min 0 min 9,2 km/h (2 Bft)
17.05.2012 17:12 21,2 C 16,9 C 1,8 UV-I 2,9 C 34 % 42 % 83 % 1016,9 hPa 0,0 l/m 4,8 km/h (1 Bft) 2 min 0 min 9,2 km/h (2 Bft)
17.05.2012 17:14 21,2 C 16,9 C 1,8 UV-I 2,9 C 34 % 43 % 83 % 1016,9 hPa 0,0 l/m 5,2 km/h (1 Bft) 2 min 0 min 9,6 km/h (2 Bft)
17.05.2012 17:16 21,3 C 16,9 C 1,8 UV-I 2,9 C 34 % 42 % 83 % 1016,9 hPa 0,0 l/m 5,2 km/h (1 Bft) 2 min 0 min 9,6 km/h (2 Bft)
17.05.2012 17:18 21,2 C 16,9 C 1,8 UV-I 2,9 C 34 % 43 % 83 % 1016,6 hPa 0,0 l/m 4,4 km/h (1 Bft) 2 min 0 min 6,0 km/h (2 Bft)
17.05.2012 17:20 21,2 C 17,1 C 1,8 UV-I 2,7 C 34 % 43 % 77 % 1016,6 hPa 0,0 l/m 4,8 km/h (1 Bft) 0 min 0 min 7,6 km/h (2 Bft)
17.05.2012 17:22 21,2 C 17,1 C 1,8 UV-I 2,7 C 34 % 42 % 77 % 1016,6 hPa 0,0 l/m 4,4 km/h (1 Bft) 0 min 0 min 7,6 km/h (2 Bft)
17.05.2012 17:24 21,2 C 17,0 C 1,8 UV-I 2,9 C 34 % 42 % 83 % 1016,6 hPa 0,0 l/m 4,4 km/h (1 Bft) 2 min 0 min 7,2 km/h (2 Bft)
17.05.2012 17:26 21,2 C 17,1 C 1,8 UV-I 2,9 C 34 % 42 % 83 % 1016,6 hPa 0,0 l/m 4,0 km/h (1 Bft) 2 min 0 min 7,2 km/h (2 Bft)
17.05.2012 17:28 21,2 C 16,9 C 1,9 UV-I 3,1 C 34 % 41 % 89 % 1016,6 hPa 0,0 l/m 4,8 km/h (1 Bft) 2 min 0 min 7,2 km/h (2 Bft)
17.05.2012 17:30 21,1 C 16,9 C 1,9 UV-I 3,1 C 35 % 41 % 89 % 1016,6 hPa 0,0 l/m 5,2 km/h (1 Bft) 2 min 0 min 7,2 km/h (2 Bft)
17.05.2012 17:32 21,2 C 16,9 C 1,9 UV-I 3,1 C 35 % 41 % 89 % 1016,6 hPa 0,0 l/m 5,2 km/h (1 Bft) 2 min 0 min 10,0 km/h (2 Bft)
17.05.2012 17:34 21,1 C 16,8 C 1,9 UV-I 3,2 C 35 % 42 % 91 % 1016,6 hPa 0,0 l/m 5,2 km/h (1 Bft) 2 min 0 min 10,0 km/h (2 Bft)
17.05.2012 17:36 21,1 C 16,8 C 1,9 UV-I 3,2 C 35 % 42 % 91 % 1016,6 hPa 0,0 l/m 5,2 km/h (1 Bft) 2 min 0 min 8,8 km/h (2 Bft)
17.05.2012 17:38 21,0 C 16,8 C 1,7 UV-I 3,2 C 35 % 42 % 91 % 1016,1 hPa 0,0 l/m 4,8 km/h (1 Bft) 2 min 0 min 6,8 km/h (2 Bft)
17.05.2012 17:40 21,0 C 16,8 C 1,7 UV-I 3,2 C 35 % 42 % 91 % 1016,1 hPa 0,0 l/m 5,2 km/h (1 Bft) 2 min 0 min 14,5 km/h (3 Bft)
17.05.2012 17:42 21,0 C 16,8 C 1,7 UV-I 3,1 C 35 % 43 % 89 % 1016,1 hPa 0,0 l/m 5,2 km/h (1 Bft) 2 min 0 min 14,5 km/h (3 Bft)
17.05.2012 17:44 21,0 C 16,9 C 1,5 UV-I 2,9 C 35 % 43 % 83 % 1016,1 hPa 0,0 l/m 5,2 km/h (1 Bft) 2 min 0 min 10,0 km/h (2 Bft)
17.05.2012 17:46 21,0 C 16,8 C 1,5 UV-I 2,9 C 35 % 42 % 83 % 1016,1 hPa 0,0 l/m 5,6 km/h (1 Bft) 2 min 0 min 10,0 km/h (2 Bft)
17.05.2012 17:48 21,0 C 16,7 C 1,3 UV-I 2,9 C 35 % 43 % 83 % 1016,1 hPa 0,0 l/m 6,8 km/h (2 Bft) 2 min 0 min 22,1 km/h (4 Bft)
17.05.2012 17:50 20,9 C 16,7 C 1,3 UV-I 2,7 C 35 % 43 % 77 % 1016,1 hPa 0,0 l/m 5,6 km/h (1 Bft) 0 min 0 min 22,1 km/h (4 Bft)
17.05.2012 17:52 20,9 C 16,7 C 1,3 UV-I 2,6 C 35 % 43 % 74 % 1016,1 hPa 0,0 l/m 5,6 km/h (1 Bft) 0 min 0 min 6,0 km/h (2 Bft)
17.05.2012 17:54 20,9 C 16,7 C 1,3 UV-I 2,5 C 35 % 42 % 71 % 1016,1 hPa 0,0 l/m 5,2 km/h (1 Bft) 0 min 0 min 6,0 km/h (2 Bft)
17.05.2012 17:56 20,8 C 16,6 C 1,3 UV-I 2,4 C 35 % 43 % 69 % 1016,1 hPa 0,0 l/m 4,8 km/h (1 Bft) 0 min 0 min 7,2 km/h (2 Bft)
17.05.2012 17:58 20,8 C 16,5 C 0,8 UV-I 2,3 C 35 % 44 % 66 % 1016,2 hPa 0,0 l/m 4,8 km/h (1 Bft) 0 min 0 min 7,2 km/h (2 Bft)
17.05.2012 18:00 20,8 C 16,5 C 0,8 UV-I 2,2 C 35 % 43 % 63 % 1016,2 hPa 0,0 l/m 4,0 km/h (1 Bft) 0 min 0 min 6,8 km/h (2 Bft)
17.05.2012 18:02 20,8 C 16,5 C 0,8 UV-I 2,0 C 35 % 43 % 57 % 1016,2 hPa 0,0 l/m 5,2 km/h (1 Bft) 0 min 0 min 12,8 km/h (3 Bft)
17.05.2012 18:04 20,8 C 16,4 C 0,7 UV-I 1,9 C 35 % 43 % 54 % 1016,2 hPa 0,0 l/m 5,2 km/h (1 Bft) 0 min 0 min 8,0 km/h (2 Bft)
17.05.2012 18:06 20,7 C 16,4 C 0,7 UV-I 1,8 C 35 % 43 % 51 % 1016,2 hPa 0,0 l/m 5,6 km/h (1 Bft) 0 min 0 min 14,9 km/h (3 Bft)
17.05.2012 18:08 20,7 C 16,5 C 0,7 UV-I 1,6 C 35 % 43 % 46 % 1016,2 hPa 0,0 l/m 6,4 km/h (2 Bft) 0 min 0 min 14,9 km/h (3 Bft)
17.05.2012 18:10 20,7 C 16,4 C 0,7 UV-I 1,5 C 35 % 43 % 43 % 1016,2 hPa 0,0 l/m 6,4 km/h (2 Bft) 0 min 0 min 14,9 km/h (3 Bft)
17.05.2012 18:12 20,7 C 16,3 C 0,7 UV-I 1,5 C 35 % 43 % 43 % 1016,2 hPa 0,0 l/m 6,4 km/h (2 Bft) 0 min 0 min 8,8 km/h (2 Bft)
17.05.2012 18:14 20,6 C 16,3 C 0,6 UV-I 1,4 C 35 % 44 % 40 % 1016,2 hPa 0,0 l/m 5,2 km/h (1 Bft) 0 min 0 min 7,2 km/h (2 Bft)
17.05.2012 18:16 20,6 C 16,3 C 0,6 UV-I 1,3 C 35 % 44 % 37 % 1016,2 hPa 0,0 l/m 4,0 km/h (1 Bft) 0 min 0 min 0,0 km/h (0 Bft)
17.05.2012 18:18 20,6 C 16,3 C 0,6 UV-I 1,3 C 35 % 44 % 37 % 1015,9 hPa 0,0 l/m 2,4 km/h (1 Bft) 0 min 0 min 0,0 km/h (0 Bft)
17.05.2012 18:20 20,5 C 16,3 C 0,6 UV-I 1,3 C 35 % 45 % 37 % 1015,9 hPa 0,0 l/m 2,0 km/h (1 Bft) 0 min 0 min 4,8 km/h (1 Bft)
17.05.2012 18:22 20,5 C 16,4 C 0,6 UV-I 1,2 C 35 % 44 % 34 % 1015,9 hPa 0,0 l/m 2,0 km/h (1 Bft) 0 min 0 min 6,8 km/h (2 Bft)
17.05.2012 18:24 20,5 C 16,4 C 0,5 UV-I 1,2 C 35 % 44 % 34 % 1015,9 hPa 0,0 l/m 2,0 km/h (1 Bft) 0 min 0 min 6,8 km/h (2 Bft)
17.05.2012 18:26 20,4 C 16,4 C 0,5 UV-I 1,2 C 35 % 44 % 34 % 1015,9 hPa 0,0 l/m 2,8 km/h (1 Bft) 0 min 0 min 8,8 km/h (2 Bft)
17.05.2012 18:28 20,4 C 16,4 C 0,5 UV-I 1,1 C 35 % 45 % 31 % 1015,9 hPa 0,0 l/m 2,8 km/h (1 Bft) 0 min 0 min 8,8 km/h (2 Bft)
17.05.2012 18:30 20,4 C 16,4 C 0,5 UV-I 1,0 C 35 % 45 % 29 % 1015,9 hPa 0,0 l/m 3,6 km/h (1 Bft) 0 min 0 min 6,4 km/h (2 Bft)
17.05.2012 18:32 20,4 C 16,4 C 0,5 UV-I 1,0 C 35 % 44 % 29 % 1015,9 hPa 0,0 l/m 4,8 km/h (1 Bft) 0 min 0 min 15,7 km/h (3 Bft)
17.05.2012 18:34 20,4 C 16,3 C 0,5 UV-I 1,0 C 36 % 45 % 29 % 1015,9 hPa 0,0 l/m 4,4 km/h (1 Bft) 0 min 0 min 15,7 km/h (3 Bft)
17.05.2012 18:36 20,4 C 16,3 C 0,5 UV-I 0,9 C 36 % 44 % 26 % 1015,9 hPa 0,0 l/m 4,4 km/h (1 Bft) 0 min 0 min 10,0 km/h (2 Bft)
17.05.2012 18:38 20,4 C 16,3 C 0,4 UV-I 0,9 C 36 % 44 % 26 % 1015,2 hPa 0,0 l/m 4,8 km/h (1 Bft) 0 min 0 min 10,0 km/h (2 Bft)
17.05.2012 18:40 20,2 C 16,2 C 0,4 UV-I 0,9 C 36 % 44 % 26 % 1015,2 hPa 0,0 l/m 4,4 km/h (1 Bft) 0 min 0 min 6,4 km/h (2 Bft)
17.05.2012 18:42 20,3 C 16,2 C 0,4 UV-I 0,8 C 36 % 44 % 23 % 1015,2 hPa 0,0 l/m 5,2 km/h (1 Bft) 0 min 0 min 10,0 km/h (2 Bft)
17.05.2012 18:44 20,3 C 16,3 C 0,4 UV-I 0,7 C 36 % 44 % 20 % 1015,2 hPa 0,0 l/m 5,6 km/h (1 Bft) 0 min 0 min 16,9 km/h (3 Bft)
17.05.2012 18:46 20,2 C 16,2 C 0,4 UV-I 0,6 C 36 % 44 % 17 % 1015,2 hPa 0,0 l/m 5,6 km/h (1 Bft) 0 min 0 min 16,9 km/h (3 Bft)
17.05.2012 18:48 20,2 C 16,2 C 0,3 UV-I 0,6 C 36 % 45 % 17 % 1015,2 hPa 0,0 l/m 5,2 km/h (1 Bft) 0 min 0 min 6,4 km/h (2 Bft)
17.05.2012 18:50 20,2 C 16,1 C 0,3 UV-I 0,7 C 36 % 45 % 20 % 1015,2 hPa 0,0 l/m 5,2 km/h (1 Bft) 0 min 0 min 6,0 km/h (2 Bft)
17.05.2012 18:52 20,2 C 16,1 C 0,3 UV-I 0,6 C 36 % 44 % 17 % 1015,2 hPa 0,0 l/m 5,2 km/h (1 Bft) 0 min 0 min 7,2 km/h (2 Bft)
17.05.2012 18:54 20,2 C 16,1 C 0,3 UV-I 0,5 C 36 % 44 % 14 % 1015,2 hPa 0,0 l/m 5,2 km/h (1 Bft) 0 min 0 min 18,5 km/h (3 Bft)
17.05.2012 18:56 20,1 C 16,1 C 0,3 UV-I 0,5 C 36 % 44 % 14 % 1015,2 hPa 0,0 l/m 4,0 km/h (1 Bft) 0 min 0 min 18,5 km/h (3 Bft)
17.05.2012 18:58 20,1 C 16,0 C 0,2 UV-I 0,6 C 36 % 44 % 17 % 1015,2 hPa 0,0 l/m 4,8 km/h (1 Bft) 0 min 0 min 18,1 km/h (3 Bft)
17.05.2012 19:00 20,1 C 16,0 C 0,2 UV-I 0,5 C 36 % 44 % 14 % 1015,2 hPa 0,0 l/m 5,2 km/h (1 Bft) 0 min 0 min 18,1 km/h (3 Bft)
17.05.2012 19:02 20,0 C 16,0 C 0,2 UV-I 0,4 C 36 % 44 % 11 % 1015,2 hPa 0,0 l/m 5,2 km/h (1 Bft) 0 min 0 min 6,0 km/h (2 Bft)
17.05.2012 19:04 20,0 C 16,0 C 0,1 UV-I 0,3 C 36 % 44 % 9 % 1015,2 hPa 0,0 l/m 4,8 km/h (1 Bft) 0 min 0 min 0,0 km/h (0 Bft)
17.05.2012 19:06 20,0 C 15,9 C 0,1 UV-I 0,3 C 36 % 45 % 9 % 1015,2 hPa 0,0 l/m 4,4 km/h (1 Bft) 0 min 0 min 5,6 km/h (1 Bft)
17.05.2012 19:08 20,0 C 15,9 C 0,1 UV-I 0,3 C 36 % 44 % 9 % 1015,2 hPa 0,0 l/m 4,4 km/h (1 Bft) 0 min 0 min 7,6 km/h (2 Bft)
17.05.2012 19:10 20,0 C 16,0 C 0,1 UV-I 0,2 C 36 % 44 % 6 % 1015,2 hPa 0,0 l/m 4,4 km/h (1 Bft) 0 min 0 min 7,6 km/h (2 Bft)
17.05.2012 19:12 19,9 C 15,9 C 0,1 UV-I 0,2 C 36 % 44 % 6 % 1015,2 hPa 0,0 l/m 3,6 km/h (1 Bft) 0 min 0 min 6,8 km/h (2 Bft)
17.05.2012 19:14 19,9 C 15,9 C 0,1 UV-I 0,2 C 36 % 43 % 6 % 1015,2 hPa 0,0 l/m 4,0 km/h (1 Bft) 0 min 0 min 4,4 km/h (1 Bft)
17.05.2012 19:16 19,9 C 15,9 C 0,1 UV-I 0,2 C 36 % 44 % 6 % 1015,2 hPa 0,0 l/m 5,2 km/h (1 Bft) 0 min 0 min 15,7 km/h (3 Bft)
17.05.2012 19:18 19,8 C 15,9 C 0,1 UV-I 0,1 C 36 % 44 % 3 % 1014,6 hPa 0,0 l/m 4,8 km/h (1 Bft) 0 min 0 min 15,7 km/h (3 Bft)
17.05.2012 19:20 19,8 C 15,9 C 0,1 UV-I 0,1 C 36 % 43 % 3 % 1014,6 hPa 0,0 l/m 5,6 km/h (1 Bft) 0 min 0 min 16,5 km/h (3 Bft)
17.05.2012 19:22 19,8 C 15,8 C 0,1 UV-I 0,1 C 36 % 44 % 3 % 1014,6 hPa 0,0 l/m 5,6 km/h (1 Bft) 0 min 0 min 16,5 km/h (3 Bft)
17.05.2012 19:24 19,8 C 15,8 C 0,0 UV-I 0,1 C 36 % 43 % 3 % 1014,6 hPa 0,0 l/m 5,2 km/h (1 Bft) 0 min 0 min 7,6 km/h (2 Bft)
17.05.2012 19:26 19,7 C 15,9 C 0,0 UV-I 0,0 C 36 % 44 % 0 % 1014,6 hPa 0,0 l/m 4,4 km/h (1 Bft) 0 min 0 min 4,0 km/h (1 Bft)
17.05.2012 19:28 19,7 C 15,8 C 0,0 UV-I 0,1 C 36 % 44 % 3 % 1014,6 hPa 0,0 l/m 4,4 km/h (1 Bft) 0 min 0 min 7,2 km/h (2 Bft)
17.05.2012 19:30 19,6 C 15,8 C 0,0 UV-I 0,1 C 36 % 44 % 3 % 1014,6 hPa 0,0 l/m 3,6 km/h (1 Bft) 0 min 0 min 7,2 km/h (2 Bft)
17.05.2012 19:32 19,6 C 15,9 C 0,0 UV-I 0,0 C 36 % 44 % 0 % 1014,6 hPa 0,0 l/m 3,6 km/h (1 Bft) 0 min 0 min 12,0 km/h (2 Bft)
17.05.2012 19:34 19,6 C 15,8 C 0,0 UV-I 0,0 C 36 % 44 % 0 % 1014,6 hPa 0,0 l/m 4,0 km/h (1 Bft) 0 min 0 min 12,0 km/h (2 Bft)
17.05.2012 19:36 19,6 C 15,9 C 0,0 UV-I 0,0 C 36 % 44 % 0 % 1014,6 hPa 0,0 l/m 4,8 km/h (1 Bft) 0 min 0 min 10,4 km/h (2 Bft)
17.05.2012 19:38 19,6 C 15,9 C 0,0 UV-I 0,0 C 36 % 45 % 0 % 1014,2 hPa 0,0 l/m 5,6 km/h (1 Bft) 0 min 0 min 10,4 km/h (2 Bft)
17.05.2012 19:40 19,6 C 15,9 C 0,0 UV-I 0,0 C 36 % 45 % 0 % 1014,2 hPa 0,0 l/m 6,0 km/h (2 Bft) 0 min 0 min 5,6 km/h (1 Bft)
17.05.2012 19:42 19,5 C 15,9 C 0,0 UV-I 0,0 C 37 % 45 % 0 % 1014,2 hPa 0,0 l/m 6,0 km/h (2 Bft) 0 min 0 min 6,0 km/h (2 Bft)
17.05.2012 19:44 19,5 C 15,9 C 0,0 UV-I 0,0 C 37 % 45 % 0 % 1014,2 hPa 0,0 l/m 5,6 km/h (1 Bft) 0 min 0 min 9,6 km/h (2 Bft)
17.05.2012 19:46 19,5 C 15,9 C 0,0 UV-I 0,0 C 37 % 45 % 0 % 1014,2 hPa 0,0 l/m 4,8 km/h (1 Bft) 0 min 0 min 9,6 km/h (2 Bft)
17.05.2012 19:48 19,5 C 15,9 C 0,0 UV-I 0,0 C 37 % 45 % 0 % 1014,2 hPa 0,0 l/m 3,6 km/h (1 Bft) 0 min 0 min 6,0 km/h (2 Bft)
17.05.2012 19:50 19,4 C 15,8 C 0,0 UV-I 0,0 C 37 % 46 % 0 % 1014,2 hPa 0,0 l/m 2,8 km/h (1 Bft) 0 min 0 min 6,0 km/h (2 Bft)
17.05.2012 19:52 19,4 C 15,7 C 0,0 UV-I 0,0 C 37 % 46 % 0 % 1014,2 hPa 0,0 l/m 2,0 km/h (1 Bft) 0 min 0 min 6,0 km/h (2 Bft)
17.05.2012 19:54 19,4 C 15,8 C 0,0 UV-I 0,0 C 37 % 46 % 0 % 1014,2 hPa 0,0 l/m 1,2 km/h (1 Bft) 0 min 0 min 0,0 km/h (0 Bft)
17.05.2012 19:56 19,4 C 15,7 C 0,0 UV-I 0,0 C 37 % 46 % 0 % 1014,2 hPa 0,0 l/m 0,8 km/h (0 Bft) 0 min 0 min 0,0 km/h (0 Bft)
17.05.2012 19:58 19,4 C 15,7 C 0,0 UV-I 0,0 C 37 % 46 % 0 % 1014,4 hPa 0,0 l/m 1,6 km/h (1 Bft) 0 min 0 min 6,8 km/h (2 Bft)
17.05.2012 20:00 19,2 C 15,7 C 0,0 UV-I 0,0 C 37 % 46 % 0 % 1014,4 hPa 0,0 l/m 2,0 km/h (1 Bft) 0 min 0 min 10,4 km/h (2 Bft)
17.05.2012 20:02 19,2 C 15,7 C 0,0 UV-I 0,0 C 37 % 46 % 0 % 1014,4 hPa 0,0 l/m 2,8 km/h (1 Bft) 0 min 0 min 10,4 km/h (2 Bft)
17.05.2012 20:04 19,2 C 15,7 C 0,0 UV-I 0,0 C 37 % 47 % 0 % 1014,4 hPa 0,0 l/m 3,2 km/h (1 Bft) 0 min 0 min 10,4 km/h (2 Bft)
17.05.2012 20:06 19,3 C 15,7 C 0,0 UV-I 0,0 C 37 % 47 % 0 % 1014,4 hPa 0,0 l/m 3,2 km/h (1 Bft) 0 min 0 min 0,0 km/h (0 Bft)
17.05.2012 20:08 19,3 C 15,7 C 0,0 UV-I 0,0 C 37 % 48 % 0 % 1014,4 hPa 0,0 l/m 3,2 km/h (1 Bft) 0 min 0 min 8,0 km/h (2 Bft)
17.05.2012 20:10 19,3 C 15,7 C 0,0 UV-I 0,0 C 37 % 48 % 0 % 1014,4 hPa 0,0 l/m 2,4 km/h (1 Bft) 0 min 0 min 8,0 km/h (2 Bft)
17.05.2012 20:12 19,2 C 15,6 C 0,0 UV-I 0,0 C 37 % 48 % 0 % 1014,4 hPa 0,0 l/m 2,0 km/h (1 Bft) 0 min 0 min 0,0 km/h (0 Bft)
17.05.2012 20:14 19,2 C 15,6 C 0,0 UV-I 0,0 C 37 % 49 % 0 % 1014,4 hPa 0,0 l/m 1,6 km/h (1 Bft) 0 min 0 min 0,0 km/h (0 Bft)
17.05.2012 20:16 19,2 C 15,7 C 0,0 UV-I 0,0 C 37 % 49 % 0 % 1014,4 hPa 0,0 l/m 1,6 km/h (1 Bft) 0 min 0 min 0,0 km/h (0 Bft)
17.05.2012 20:18 19,2 C 15,5 C 0,0 UV-I 0,0 C 37 % 48 % 0 % 1013,9 hPa 0,0 l/m 2,8 km/h (1 Bft) 0 min 0 min 8,4 km/h (2 Bft)
17.05.2012 20:20 19,2 C 15,5 C 0,0 UV-I 0,0 C 38 % 49 % 0 % 1013,9 hPa 0,0 l/m 3,2 km/h (1 Bft) 0 min 0 min 8,4 km/h (2 Bft)
17.05.2012 20:22 19,2 C 15,5 C 0,0 UV-I 0,0 C 38 % 49 % 0 % 1013,9 hPa 0,0 l/m 2,8 km/h (1 Bft) 0 min 0 min 6,0 km/h (2 Bft)
17.05.2012 20:24 19,2 C 15,4 C 0,0 UV-I 0,0 C 38 % 49 % 0 % 1013,9 hPa 0,0 l/m 2,0 km/h (1 Bft) 0 min 0 min 4,0 km/h (1 Bft)
17.05.2012 20:26 19,1 C 15,5 C 0,0 UV-I 0,0 C 38 % 49 % 0 % 1013,9 hPa 0,0 l/m 2,0 km/h (1 Bft) 0 min 0 min 6,8 km/h (2 Bft)
17.05.2012 20:28 19,1 C 15,4 C 0,0 UV-I 0,0 C 38 % 49 % 0 % 1013,9 hPa 0,0 l/m 1,6 km/h (1 Bft) 0 min 0 min 6,8 km/h (2 Bft)
17.05.2012 20:30 19,1 C 15,4 C 0,0 UV-I 0,0 C 38 % 49 % 0 % 1013,9 hPa 0,0 l/m 1,6 km/h (1 Bft) 0 min 0 min 6,4 km/h (2 Bft)
17.05.2012 20:32 19,1 C 15,5 C 0,0 UV-I 0,0 C 38 % 49 % 0 % 1013,9 hPa 0,0 l/m 1,2 km/h (1 Bft) 0 min 0 min 6,4 km/h (2 Bft)
17.05.2012 20:34 19,0 C 15,5 C 0,0 UV-I 0,0 C 38 % 50 % 0 % 1013,9 hPa 0,0 l/m 2,0 km/h (1 Bft) 0 min 0 min 5,6 km/h (1 Bft)
17.05.2012 20:36 19,0 C 15,4 C 0,0 UV-I 0,0 C 38 % 50 % 0 % 1013,9 hPa 0,0 l/m 2,4 km/h (1 Bft) 0 min 0 min 5,6 km/h (1 Bft)
17.05.2012 20:38 19,0 C 15,4 C 0,0 UV-I 0,0 C 38 % 49 % 0 % 1013,8 hPa 0,0 l/m 3,6 km/h (1 Bft) 0 min 0 min 6,4 km/h (2 Bft)
17.05.2012 20:40 19,0 C 15,4 C 0,0 UV-I 0,0 C 38 % 49 % 0 % 1013,8 hPa 0,0 l/m 3,6 km/h (1 Bft) 0 min 0 min 6,4 km/h (2 Bft)
17.05.2012 20:42 19,0 C 15,3 C 0,0 UV-I 0,0 C 38 % 50 % 0 % 1013,8 hPa 0,0 l/m 3,6 km/h (1 Bft) 0 min 0 min 6,0 km/h (2 Bft)
17.05.2012 20:44 19,0 C 15,3 C 0,0 UV-I 0,0 C 38 % 50 % 0 % 1013,8 hPa 0,0 l/m 3,6 km/h (1 Bft) 0 min 0 min 6,0 km/h (2 Bft)
17.05.2012 20:46 19,0 C 15,3 C 0,0 UV-I 0,0 C 38 % 50 % 0 % 1013,8 hPa 0,0 l/m 3,6 km/h (1 Bft) 0 min 0 min 10,0 km/h (2 Bft)
17.05.2012 20:48 18,9 C 15,3 C 0,0 UV-I 0,0 C 38 % 50 % 0 % 1013,8 hPa 0,0 l/m 3,2 km/h (1 Bft) 0 min 0 min 12,0 km/h (2 Bft)
17.05.2012 20:50 18,9 C 15,3 C 0,0 UV-I 0,0 C 38 % 50 % 0 % 1013,8 hPa 0,0 l/m 3,6 km/h (1 Bft) 0 min 0 min 12,0 km/h (2 Bft)
17.05.2012 20:52 18,9 C 15,2 C 0,0 UV-I 0,0 C 38 % 50 % 0 % 1013,8 hPa 0,0 l/m 5,2 km/h (1 Bft) 0 min 0 min 9,2 km/h (2 Bft)
17.05.2012 20:54 18,9 C 15,3 C 0,0 UV-I 0,0 C 38 % 50 % 0 % 1013,8 hPa 0,0 l/m 5,2 km/h (1 Bft) 0 min 0 min 9,6 km/h (2 Bft)
17.05.2012 20:56 18,9 C 15,2 C 0,0 UV-I 0,0 C 38 % 50 % 0 % 1013,8 hPa 0,0 l/m 6,0 km/h (2 Bft) 0 min 0 min 11,2 km/h (2 Bft)
17.05.2012 20:58 18,8 C 15,2 C 0,0 UV-I 0,0 C 38 % 50 % 0 % 1013,8 hPa 0,0 l/m 5,6 km/h (1 Bft) 0 min 0 min 11,2 km/h (2 Bft)
17.05.2012 21:00 18,8 C 15,3 C 0,0 UV-I 0,0 C 38 % 50 % 0 % 1013,8 hPa 0,0 l/m 5,6 km/h (1 Bft) 0 min 0 min 8,4 km/h (2 Bft)
17.05.2012 21:02 18,8 C 15,2 C 0,0 UV-I 0,0 C 39 % 50 % 0 % 1013,8 hPa 0,0 l/m 5,6 km/h (1 Bft) 0 min 0 min 9,2 km/h (2 Bft)
17.05.2012 21:04 18,8 C 15,3 C 0,0 UV-I 0,0 C 39 % 50 % 0 % 1013,8 hPa 0,0 l/m 5,2 km/h (1 Bft) 0 min 0 min 5,2 km/h (1 Bft)
17.05.2012 21:06 18,8 C 15,2 C 0,0 UV-I 0,0 C 39 % 51 % 0 % 1013,8 hPa 0,0 l/m 5,2 km/h (1 Bft) 0 min 0 min 7,6 km/h (2 Bft)
17.05.2012 21:08 18,8 C 15,2 C 0,0 UV-I 0,0 C 39 % 51 % 0 % 1013,8 hPa 0,0 l/m 4,8 km/h (1 Bft) 0 min 0 min 12,0 km/h (2 Bft)
17.05.2012 21:10 18,8 C 15,1 C 0,0 UV-I 0,0 C 39 % 51 % 0 % 1013,8 hPa 0,0 l/m 5,6 km/h (1 Bft) 0 min 0 min 12,0 km/h (2 Bft)
17.05.2012 21:12 18,8 C 15,1 C 0,0 UV-I 0,0 C 39 % 51 % 0 % 1013,8 hPa 0,0 l/m 4,4 km/h (1 Bft) 0 min 0 min 6,4 km/h (2 Bft)
17.05.2012 21:14 18,8 C 15,1 C 0,0 UV-I 0,0 C 39 % 51 % 0 % 1013,8 hPa 0,0 l/m 4,4 km/h (1 Bft) 0 min 0 min 12,0 km/h (2 Bft)
17.05.2012 21:16 18,8 C 15,1 C 0,0 UV-I 0,0 C 39 % 51 % 0 % 1013,8 hPa 0,0 l/m 5,2 km/h (1 Bft) 0 min 0 min 12,0 km/h (2 Bft)
17.05.2012 21:18 18,7 C 15,1 C 0,0 UV-I 0,0 C 39 % 51 % 0 % 1013,4 hPa 0,0 l/m 4,8 km/h (1 Bft) 0 min 0 min 7,6 km/h (2 Bft)
17.05.2012 21:20 18,7 C 15,1 C 0,0 UV-I 0,0 C 39 % 51 % 0 % 1013,4 hPa 0,0 l/m 4,0 km/h (1 Bft) 0 min 0 min 7,2 km/h (2 Bft)
17.05.2012 21:22 18,7 C 15,1 C 0,0 UV-I 0,0 C 39 % 51 % 0 % 1013,4 hPa 0,0 l/m 4,4 km/h (1 Bft) 0 min 0 min 4,4 km/h (1 Bft)
17.05.2012 21:24 18,7 C 14,9 C 0,0 UV-I 0,0 C 39 % 51 % 0 % 1013,4 hPa 0,0 l/m 4,8 km/h (1 Bft) 0 min 0 min 10,8 km/h (2 Bft)
17.05.2012 21:26 18,7 C 14,9 C 0,0 UV-I 0,0 C 39 % 51 % 0 % 1013,4 hPa 0,0 l/m 4,8 km/h (1 Bft) 0 min 0 min 10,8 km/h (2 Bft)
17.05.2012 21:28 18,7 C 14,8 C 0,0 UV-I 0,0 C 39 % 51 % 0 % 1013,4 hPa 0,0 l/m 5,2 km/h (1 Bft) 0 min 0 min 9,2 km/h (2 Bft)
17.05.2012 21:30 18,7 C 14,8 C 0,0 UV-I 0,0 C 39 % 51 % 0 % 1013,4 hPa 0,0 l/m 4,8 km/h (1 Bft) 0 min 0 min 6,8 km/h (2 Bft)
17.05.2012 21:32 18,7 C 14,8 C 0,0 UV-I 0,0 C 39 % 51 % 0 % 1013,4 hPa 0,0 l/m 5,6 km/h (1 Bft) 0 min 0 min 9,6 km/h (2 Bft)
17.05.2012 21:34 18,6 C 14,9 C 0,0 UV-I 0,0 C 39 % 51 % 0 % 1013,4 hPa 0,0 l/m 6,4 km/h (2 Bft) 0 min 0 min 9,6 km/h (2 Bft)
17.05.2012 21:36 18,6 C 14,8 C 0,0 UV-I 0,0 C 39 % 51 % 0 % 1013,4 hPa 0,0 l/m 5,6 km/h (1 Bft) 0 min 0 min 15,3 km/h (3 Bft)
17.05.2012 21:38 18,6 C 14,8 C 0,0 UV-I 0,0 C 39 % 51 % 0 % 1013,3 hPa 0,0 l/m 6,0 km/h (2 Bft) 0 min 0 min 15,3 km/h (3 Bft)
17.05.2012 21:40 18,6 C 14,7 C 0,0 UV-I 0,0 C 39 % 50 % 0 % 1013,3 hPa 0,0 l/m 6,4 km/h (2 Bft) 0 min 0 min 14,1 km/h (3 Bft)
17.05.2012 21:42 18,6 C 14,7 C 0,0 UV-I 0,0 C 39 % 50 % 0 % 1013,3 hPa 0,0 l/m 7,2 km/h (2 Bft) 0 min 0 min 12,0 km/h (2 Bft)
17.05.2012 21:44 18,6 C 14,7 C 0,0 UV-I 0,0 C 39 % 50 % 0 % 1013,3 hPa 0,0 l/m 6,8 km/h (2 Bft) 0 min 0 min 12,0 km/h (2 Bft)
17.05.2012 21:46 18,6 C 14,7 C 0,0 UV-I 0,0 C 39 % 51 % 0 % 1013,3 hPa 0,0 l/m 6,8 km/h (2 Bft) 0 min 0 min 11,2 km/h (2 Bft)
17.05.2012 21:48 18,5 C 14,7 C 0,0 UV-I 0,0 C 39 % 51 % 0 % 1013,3 hPa 0,0 l/m 6,4 km/h (2 Bft) 0 min 0 min 11,6 km/h (2 Bft)
17.05.2012 21:50 18,5 C 14,6 C 0,0 UV-I 0,0 C 39 % 51 % 0 % 1013,3 hPa 0,0 l/m 6,0 km/h (2 Bft) 0 min 0 min 11,6 km/h (2 Bft)
17.05.2012 21:52 18,5 C 14,5 C 0,0 UV-I 0,0 C 39 % 51 % 0 % 1013,3 hPa 0,0 l/m 5,2 km/h (1 Bft) 0 min 0 min 6,8 km/h (2 Bft)
17.05.2012 21:54 18,5 C 14,5 C 0,0 UV-I 0,0 C 39 % 51 % 0 % 1013,3 hPa 0,0 l/m 5,2 km/h (1 Bft) 0 min 0 min 13,7 km/h (3 Bft)
17.05.2012 21:56 18,5 C 14,5 C 0,0 UV-I 0,0 C 39 % 50 % 0 % 1013,3 hPa 0,0 l/m 4,8 km/h (1 Bft) 0 min 0 min 13,7 km/h (3 Bft)
17.05.2012 21:58 18,5 C 14,4 C 0,0 UV-I 0,0 C 39 % 50 % 0 % 1013,2 hPa 0,0 l/m 5,2 km/h (1 Bft) 0 min 0 min 7,6 km/h (2 Bft)
17.05.2012 22:00 18,5 C 14,4 C 0,0 UV-I 0,0 C 39 % 51 % 0 % 1013,2 hPa 0,0 l/m 4,4 km/h (1 Bft) 0 min 0 min 4,8 km/h (1 Bft)
17.05.2012 22:02 18,5 C 14,5 C 0,0 UV-I 0,0 C 39 % 51 % 0 % 1013,2 hPa 0,0 l/m 4,0 km/h (1 Bft) 0 min 0 min 5,2 km/h (1 Bft)
17.05.2012 22:04 18,4 C 14,4 C 0,0 UV-I 0,0 C 40 % 51 % 0 % 1013,2 hPa 0,0 l/m 4,8 km/h (1 Bft) 0 min 0 min 0,0 km/h (0 Bft)
17.05.2012 22:06 18,4 C 14,4 C 0,0 UV-I 0,0 C 40 % 50 % 0 % 1013,2 hPa 0,0 l/m 4,4 km/h (1 Bft) 0 min 0 min 0,0 km/h (0 Bft)
17.05.2012 22:08 18,4 C 14,3 C 0,0 UV-I 0,0 C 40 % 51 % 0 % 1013,2 hPa 0,0 l/m 3,2 km/h (1 Bft) 0 min 0 min 0,0 km/h (0 Bft)
17.05.2012 22:10 18,4 C 14,3 C 0,0 UV-I 0,0 C 40 % 51 % 0 % 1013,2 hPa 0,0 l/m 3,2 km/h (1 Bft) 0 min 0 min 8,0 km/h (2 Bft)
17.05.2012 22:12 18,4 C 14,2 C 0,0 UV-I 0,0 C 40 % 51 % 0 % 1013,2 hPa 0,0 l/m 2,8 km/h (1 Bft) 0 min 0 min 8,0 km/h (2 Bft)
17.05.2012 22:14 18,4 C 14,3 C 0,0 UV-I 0,0 C 40 % 51 % 0 % 1013,2 hPa 0,0 l/m 2,8 km/h (1 Bft) 0 min 0 min 6,4 km/h (2 Bft)
17.05.2012 22:16 18,4 C 14,3 C 0,0 UV-I 0,0 C 40 % 51 % 0 % 1013,2 hPa 0,0 l/m 2,4 km/h (1 Bft) 0 min 0 min 6,4 km/h (2 Bft)
17.05.2012 22:18 18,4 C 14,1 C 0,0 UV-I 0,0 C 40 % 51 % 0 % 1013,1 hPa 0,0 l/m 3,2 km/h (1 Bft) 0 min 0 min 6,4 km/h (2 Bft)
17.05.2012 22:20 18,4 C 14,1 C 0,0 UV-I 0,0 C 40 % 51 % 0 % 1013,1 hPa 0,0 l/m 3,6 km/h (1 Bft) 0 min 0 min 6,4 km/h (2 Bft)
17.05.2012 22:22 18,4 C 14,1 C 0,0 UV-I 0,0 C 40 % 51 % 0 % 1013,1 hPa 0,0 l/m 2,8 km/h (1 Bft) 0 min 0 min 5,6 km/h (1 Bft)
17.05.2012 22:24 18,4 C 14,0 C 0,0 UV-I 0,0 C 40 % 51 % 0 % 1013,1 hPa 0,0 l/m 2,8 km/h (1 Bft) 0 min 0 min 5,6 km/h (1 Bft)
17.05.2012 22:26 18,4 C 14,1 C 0,0 UV-I 0,0 C 40 % 52 % 0 % 1013,1 hPa 0,0 l/m 2,4 km/h (1 Bft) 0 min 0 min 0,0 km/h (0 Bft)
17.05.2012 22:28 18,4 C 14,0 C 0,0 UV-I 0,0 C 40 % 52 % 0 % 1013,1 hPa 0,0 l/m 2,0 km/h (1 Bft) 0 min 0 min 0,0 km/h (0 Bft)
17.05.2012 22:30 18,4 C 13,9 C 0,0 UV-I 0,0 C 40 % 52 % 0 % 1013,1 hPa 0,0 l/m 1,6 km/h (1 Bft) 0 min 0 min 6,0 km/h (2 Bft)
17.05.2012 22:32 18,2 C 13,9 C 0,0 UV-I 0,0 C 40 % 52 % 0 % 1013,1 hPa 0,0 l/m 1,6 km/h (1 Bft) 0 min 0 min 6,0 km/h (2 Bft)
17.05.2012 22:34 18,3 C 13,8 C 0,0 UV-I 0,0 C 40 % 52 % 0 % 1013,1 hPa 0,0 l/m 2,0 km/h (1 Bft) 0 min 0 min 0,0 km/h (0 Bft)
17.05.2012 22:36 18,2 C 13,8 C 0,0 UV-I 0,0 C 40 % 52 % 0 % 1013,1 hPa 0,0 l/m 1,6 km/h (1 Bft) 0 min 0 min 0,0 km/h (0 Bft)
17.05.2012 22:38 18,3 C 13,8 C 0,0 UV-I 0,0 C 40 % 52 % 0 % 1012,9 hPa 0,0 l/m 2,0 km/h (1 Bft) 0 min 0 min 7,2 km/h (2 Bft)
17.05.2012 22:40 18,3 C 13,7 C 0,0 UV-I 0,0 C 40 % 53 % 0 % 1012,9 hPa 0,0 l/m 2,8 km/h (1 Bft) 0 min 0 min 8,0 km/h (2 Bft)
17.05.2012 22:42 18,3 C 13,7 C 0,0 UV-I 0,0 C 40 % 53 % 0 % 1012,9 hPa 0,0 l/m 2,8 km/h (1 Bft) 0 min 0 min 8,0 km/h (2 Bft)
17.05.2012 22:44 18,3 C 13,6 C 0,0 UV-I 0,0 C 40 % 53 % 0 % 1012,9 hPa 0,0 l/m 2,4 km/h (1 Bft) 0 min 0 min 0,0 km/h (0 Bft)
17.05.2012 22:46 18,3 C 13,6 C 0,0 UV-I 0,0 C 40 % 53 % 0 % 1012,9 hPa 0,0 l/m 2,0 km/h (1 Bft) 0 min 0 min 0,0 km/h (0 Bft)
17.05.2012 22:48 18,3 C 13,6 C 0,0 UV-I 0,0 C 40 % 53 % 0 % 1012,9 hPa 0,0 l/m 2,8 km/h (1 Bft) 0 min 0 min 12,0 km/h (2 Bft)
17.05.2012 22:50 18,2 C 13,6 C 0,0 UV-I 0,0 C 40 % 53 % 0 % 1012,9 hPa 0,0 l/m 2,8 km/h (1 Bft) 0 min 0 min 12,0 km/h (2 Bft)
17.05.2012 22:52 18,2 C 13,6 C 0,0 UV-I 0,0 C 40 % 53 % 0 % 1012,9 hPa 0,0 l/m 2,4 km/h (1 Bft) 0 min 0 min 7,2 km/h (2 Bft)
17.05.2012 22:54 18,2 C 13,5 C 0,0 UV-I 0,0 C 40 % 54 % 0 % 1012,9 hPa 0,0 l/m 2,4 km/h (1 Bft) 0 min 0 min 4,4 km/h (1 Bft)
17.05.2012 22:56 18,2 C 13,5 C 0,0 UV-I 0,0 C 40 % 54 % 0 % 1012,9 hPa 0,0 l/m 2,4 km/h (1 Bft) 0 min 0 min 0,0 km/h (0 Bft)
17.05.2012 22:58 18,2 C 13,4 C 0,0 UV-I 0,0 C 40 % 54 % 0 % 1013,0 hPa 0,0 l/m 2,4 km/h (1 Bft) 0 min 0 min 4,8 km/h (1 Bft)
17.05.2012 23:00 18,2 C 13,5 C 0,0 UV-I 0,0 C 40 % 54 % 0 % 1013,0 hPa 0,0 l/m 1,6 km/h (1 Bft) 0 min 0 min 4,8 km/h (1 Bft)
17.05.2012 23:02 18,2 C 13,5 C 0,0 UV-I 0,0 C 40 % 54 % 0 % 1013,0 hPa 0,0 l/m 1,2 km/h (1 Bft) 0 min 0 min 4,4 km/h (1 Bft)
17.05.2012 23:04 18,2 C 13,5 C 0,0 UV-I 0,0 C 40 % 54 % 0 % 1013,0 hPa 0,0 l/m 1,2 km/h (1 Bft) 0 min 0 min 5,2 km/h (1 Bft)
17.05.2012 23:06 18,2 C 13,4 C 0,0 UV-I 0,0 C 40 % 55 % 0 % 1013,0 hPa 0,0 l/m 1,2 km/h (1 Bft) 0 min 0 min 7,6 km/h (2 Bft)
17.05.2012 23:08 18,2 C 13,4 C 0,0 UV-I 0,0 C 40 % 55 % 0 % 1013,0 hPa 0,0 l/m 1,6 km/h (1 Bft) 0 min 0 min 7,6 km/h (2 Bft)
17.05.2012 23:10 18,2 C 13,3 C 0,0 UV-I 0,0 C 40 % 55 % 0 % 1013,0 hPa 0,0 l/m 2,8 km/h (1 Bft) 0 min 0 min 6,0 km/h (2 Bft)
17.05.2012 23:12 18,2 C 13,3 C 0,0 UV-I 0,0 C 40 % 55 % 0 % 1013,0 hPa 0,0 l/m 4,0 km/h (1 Bft) 0 min 0 min 6,0 km/h (2 Bft)
17.05.2012 23:14 18,2 C 13,4 C 0,0 UV-I 0,0 C 40 % 55 % 0 % 1013,0 hPa 0,0 l/m 4,8 km/h (1 Bft) 0 min 0 min 16,9 km/h (3 Bft)
17.05.2012 23:16 18,2 C 13,5 C 0,0 UV-I 0,0 C 40 % 55 % 0 % 1013,0 hPa 0,0 l/m 5,6 km/h (1 Bft) 0 min 0 min 16,9 km/h (3 Bft)
17.05.2012 23:18 18,2 C 13,5 C 0,0 UV-I 0,0 C 41 % 55 % 0 % 1012,8 hPa 0,0 l/m 6,0 km/h (2 Bft) 0 min 0 min 8,8 km/h (2 Bft)
17.05.2012 23:20 18,1 C 13,5 C 0,0 UV-I 0,0 C 41 % 56 % 0 % 1012,8 hPa 0,0 l/m 5,6 km/h (1 Bft) 0 min 0 min 6,8 km/h (2 Bft)
17.05.2012 23:22 18,1 C 13,5 C 0,0 UV-I 0,0 C 40 % 55 % 0 % 1012,8 hPa 0,0 l/m 5,6 km/h (1 Bft) 0 min 0 min 8,4 km/h (2 Bft)
17.05.2012 23:24 18,1 C 13,5 C 0,0 UV-I 0,0 C 41 % 56 % 0 % 1012,8 hPa 0,0 l/m 5,6 km/h (1 Bft) 0 min 0 min 8,4 km/h (2 Bft)
17.05.2012 23:26 18,1 C 13,5 C 0,0 UV-I 0,0 C 41 % 55 % 0 % 1012,8 hPa 0,0 l/m 4,8 km/h (1 Bft) 0 min 0 min 8,4 km/h (2 Bft)
17.05.2012 23:28 18,1 C 13,4 C 0,0 UV-I 0,0 C 41 % 55 % 0 % 1012,8 hPa 0,0 l/m 4,8 km/h (1 Bft) 0 min 0 min 5,2 km/h (1 Bft)
17.05.2012 23:30 18,1 C 13,5 C 0,0 UV-I 0,0 C 41 % 55 % 0 % 1012,8 hPa 0,0 l/m 4,8 km/h (1 Bft) 0 min 0 min 4,8 km/h (1 Bft)
17.05.2012 23:32 18,1 C 13,4 C 0,0 UV-I 0,0 C 41 % 55 % 0 % 1012,8 hPa 0,0 l/m 4,4 km/h (1 Bft) 0 min 0 min 0,0 km/h (0 Bft)
17.05.2012 23:34 18,1 C 13,4 C 0,0 UV-I 0,0 C 41 % 55 % 0 % 1012,8 hPa 0,0 l/m 3,6 km/h (1 Bft) 0 min 0 min 6,0 km/h (2 Bft)
17.05.2012 23:36 18,1 C 13,4 C 0,0 UV-I 0,0 C 41 % 55 % 0 % 1012,8 hPa 0,0 l/m 4,0 km/h (1 Bft) 0 min 0 min 9,2 km/h (2 Bft)
17.05.2012 23:38 18,1 C 13,4 C 0,0 UV-I 0,0 C 41 % 55 % 0 % 1012,0 hPa 0,0 l/m 4,4 km/h (1 Bft) 0 min 0 min 9,2 km/h (2 Bft)
17.05.2012 23:40 18,0 C 13,4 C 0,0 UV-I 0,0 C 41 % 55 % 0 % 1012,0 hPa 0,0 l/m 4,4 km/h (1 Bft) 0 min 0 min 8,0 km/h (2 Bft)
17.05.2012 23:42 18,1 C 13,4 C 0,0 UV-I 0,0 C 41 % 55 % 0 % 1012,0 hPa 0,0 l/m 4,8 km/h (1 Bft) 0 min 0 min 6,4 km/h (2 Bft)
17.05.2012 23:44 18,0 C 13,3 C 0,0 UV-I 0,0 C 41 % 55 % 0 % 1012,0 hPa 0,0 l/m 4,8 km/h (1 Bft) 0 min 0 min 6,4 km/h (2 Bft)
17.05.2012 23:46 18,0 C 13,3 C 0,0 UV-I 0,0 C 41 % 55 % 0 % 1012,0 hPa 0,0 l/m 4,8 km/h (1 Bft) 0 min 0 min 8,0 km/h (2 Bft)
17.05.2012 23:48 18,0 C 13,3 C 0,0 UV-I 0,0 C 41 % 55 % 0 % 1012,0 hPa 0,0 l/m 4,8 km/h (1 Bft) 0 min 0 min 8,4 km/h (2 Bft)
17.05.2012 23:50 18,0 C 13,3 C 0,0 UV-I 0,0 C 41 % 55 % 0 % 1012,0 hPa 0,0 l/m 4,0 km/h (1 Bft) 0 min 0 min 8,4 km/h (2 Bft)
17.05.2012 23:52 18,0 C 13,3 C 0,0 UV-I 0,0 C 41 % 55 % 0 % 1012,0 hPa 0,0 l/m 3,6 km/h (1 Bft) 0 min 0 min 0,0 km/h (0 Bft)
17.05.2012 23:54 18,0 C 13,3 C 0,0 UV-I 0,0 C 41 % 55 % 0 % 1012,0 hPa 0,0 l/m 3,2 km/h (1 Bft) 0 min 0 min 0,0 km/h (0 Bft)
17.05.2012 23:56 18,0 C 13,3 C 0,0 UV-I 0,0 C 41 % 55 % 0 % 1012,0 hPa 0,0 l/m 2,8 km/h (1 Bft) 0 min 0 min 0,0 km/h (0 Bft)
17.05.2012 23:58 18,0 C 13,2 C 0,0 UV-I 0,0 C 41 % 55 % 0 % 1012,6 hPa 0,0 l/m 2,4 km/h (1 Bft) 0 min 0 min 0,0 km/h (0 Bft)
_ Min-Zeit 06:32 06:22 00:00 00:00 16:24 16:08 00:00 23:38 - 00:00 - - 00:00
Minimum _ 14,9 C 1,9 C 0,0 UV-I 0,0 C 33 % 38 % 0 % 1012,0 hPa - 0,0 km/h (0 Bft) - - 0,0 km/h (0 Bft)
_ Max-Zeit 16:16 16:06 10:37 09:22 07:08 06:56 08:22 00:18 00:00 15:20 08:20 00:00 13:16
Maximum _ 21,6 C 17,7 C 4,9 UV-I 9,8 C 47 % 93 % 100 % 1025,1 hPa 0,0 l/m 9,2 km/h
O (2 Bft)
2 min 0 min 23,3 km/h
SW (4 Bft)
Durchschnitt _ 17,4 C 10,6 C 1,1 UV-I 2,5 C 42 % 65 % 41 % 1020,1 hPa #0,0 l/m 3,1 km/h (1 Bft) #8:11 h #0 min. 5,9 km/h (2 Bft)
© 2012 W. Hausmann